| time (UTC) | temp F | wind direction | speed MPH | gust MPH | rain 1hr in | rain 24hr in | rain mn in | humidity % | barometer mb |
| 20260508234005 | 59 | 5 | 1.0 | 2.0 | 0.00 | 0.00 | 0.00 | 66 | 1009.7 |
| 20260508233901 | 59 | 5 | 0.0 | 2.0 | 0.00 | 0.00 | 0.00 | 65 | 1009.6 |
| 20260508233802 | 59 | 5 | 1.0 | 2.0 | 0.00 | 0.00 | 0.00 | 65 | 1009.7 |
| 20260508233701 | 59 | 5 | 0.0 | 2.0 | 0.00 | 0.00 | 0.00 | 65 | 1009.6 |
| 20260508233602 | 59 | 5 | 0.0 | 2.0 | 0.00 | 0.00 | 0.00 | 66 | 1009.7 |
| 20260508233505 | 59 | 5 | 0.0 | 2.0 | 0.00 | 0.00 | 0.00 | 65 | 1009.6 |
| 20260508233301 | 59 | 5 | 0.0 | 2.0 | 0.00 | 0.00 | 0.00 | 65 | 1009.5 |
| 20260508233202 | 59 | 5 | 0.0 | 2.0 | 0.00 | 0.00 | 0.00 | 65 | 1009.5 |
| 20260508233103 | 60 | 5 | 0.0 | 2.0 | 0.00 | 0.00 | 0.00 | 64 | 1009.5 |
| 20260508232901 | 60 | 5 | 0.0 | 2.0 | 0.00 | 0.00 | 0.00 | 64 | 1009.5 |
| 20260508232802 | 60 | 5 | 1.0 | 2.0 | 0.00 | 0.00 | 0.00 | 64 | 1009.5 |
| 20260508232703 | 60 | 5 | 0.0 | 5.0 | 0.00 | 0.00 | 0.00 | 64 | 1009.5 |
| 20260508232601 | 60 | 5 | 0.0 | 5.0 | 0.00 | 0.00 | 0.00 | 63 | 1009.5 |
| 20260508232505 | 60 | 5 | 0.0 | 5.0 | 0.00 | 0.00 | 0.00 | 62 | 1009.4 |
| 20260508232401 | 60 | 5 | 0.0 | 5.0 | 0.00 | 0.00 | 0.00 | 62 | 1009.5 |
| 20260508232306 | 60 | 5 | 0.0 | 5.0 | 0.00 | 0.00 | 0.00 | 63 | 1009.4 |
| 20260508232204 | 60 | 5 | 0.0 | 5.0 | 0.00 | 0.00 | 0.00 | 62 | 1009.4 |
| 20260508232006 | 60 | 5 | 0.0 | 5.0 | 0.00 | 0.00 | 0.00 | 61 | 1009.4 |
| 20260508231802 | 60 | 5 | 2.0 | 5.0 | 0.00 | 0.00 | 0.00 | 61 | 1009.4 |
| 20260508231702 | 60 | 12 | 5.0 | 5.0 | 0.00 | 0.00 | 0.00 | 61 | 1009.4 |
| 20260508231602 | 60 | 26 | 3.0 | 5.0 | 0.00 | 0.00 | 0.00 | 61 | 1009.4 |
| 20260508231506 | 60 | 5 | 2.0 | 5.0 | 0.00 | 0.00 | 0.00 | 61 | 1009.4 |
| 20260508231402 | 60 | 321 | 2.0 | 4.0 | 0.00 | 0.00 | 0.00 | 61 | 1009.4 |
| 20260508231303 | 60 | 321 | 1.0 | 4.0 | 0.00 | 0.00 | 0.00 | 61 | 1009.4 |
| 20260508231200 | 60 | 321 | 1.0 | 4.0 | 0.00 | 0.00 | 0.00 | 61 | 1009.4 |
| 20260508231005 | 60 | 321 | 2.0 | 4.0 | 0.00 | 0.00 | 0.00 | 61 | 1009.4 |
| 20260508230902 | 60 | 253 | 2.0 | 3.0 | 0.00 | 0.00 | 0.00 | 63 | 1009.4 |
| 20260508230803 | 60 | 253 | 1.0 | 2.0 | 0.00 | 0.00 | 0.00 | 62 | 1009.4 |
| 20260508230702 | 60 | 253 | 1.0 | 2.0 | 0.00 | 0.00 | 0.00 | 61 | 1009.4 |
| 20260508230505 | 60 | 253 | 0.0 | 2.0 | 0.00 | 0.00 | 0.00 | 61 | 1009.4 |
| 20260508230401 | 60 | 253 | 2.0 | 2.0 | 0.00 | 0.00 | 0.00 | 61 | 1009.4 |
| 20260508230303 | 60 | 253 | 2.0 | 2.0 | 0.00 | 0.00 | 0.00 | 62 | 1009.4 |
| 20260508230202 | 60 | 253 | 0.0 | 2.0 | 0.00 | 0.00 | 0.00 | 62 | 1009.4 |
| 20260508225901 | 60 | 253 | 0.0 | 2.0 | 0.00 | 0.00 | 0.00 | 61 | 1009.5 |
| 20260508225800 | 60 | 253 | 1.0 | 2.0 | 0.00 | 0.00 | 0.00 | 62 | 1009.4 |
| 20260508225701 | 60 | 253 | 1.0 | 2.0 | 0.00 | 0.00 | 0.00 | 63 | 1009.4 |
| 20260508225602 | 60 | 253 | 2.0 | 2.0 | 0.00 | 0.00 | 0.00 | 61 | 1009.4 |
| 20260508225506 | 60 | 253 | 2.0 | 2.0 | 0.00 | 0.00 | 0.00 | 61 | 1009.5 |
| 20260508225401 | 60 | 253 | 1.0 | 2.0 | 0.00 | 0.00 | 0.00 | 61 | 1009.4 |
| 20260508225301 | 60 | 253 | 1.0 | 2.0 | 0.00 | 0.00 | 0.00 | 62 | 1009.5 |
| 20260508225201 | 60 | 253 | 1.0 | 2.0 | 0.00 | 0.00 | 0.00 | 62 | 1009.5 |
| 20260508225101 | 60 | 253 | 0.0 | 0.0 | 0.00 | 0.00 | 0.00 | 63 | 1009.5 |
| 20260508225004 | 60 | 253 | 0.0 | 0.0 | 0.00 | 0.00 | 0.00 | 62 | 1009.5 |
| 20260508224901 | 60 | 253 | 0.0 | 0.0 | 0.00 | 0.00 | 0.00 | 62 | 1009.5 |
| 20260508224800 | 60 | 253 | 0.0 | 0.0 | 0.00 | 0.00 | 0.00 | 61 | 1009.5 |
| 20260508224702 | 60 | 253 | 0.0 | 0.0 | 0.00 | 0.00 | 0.00 | 61 | 1009.4 |
| 20260508224401 | 60 | 253 | 0.0 | 1.0 | 0.00 | 0.00 | 0.00 | 62 | 1009.4 |
| 20260508224259 | 60 | 253 | 0.0 | 1.0 | 0.00 | 0.00 | 0.00 | 62 | 1009.4 |
| 20260508224200 | 60 | 253 | 0.0 | 1.0 | 0.00 | 0.00 | 0.00 | 62 | 1009.4 |
| 20260508224100 | 60 | 253 | 0.0 | 1.0 | 0.00 | 0.00 | 0.00 | 61 | 1009.4 |
| 20260508224005 | 60 | 253 | 0.0 | 1.0 | 0.00 | 0.00 | 0.00 | 62 | 1009.4 |
| 20260508223902 | 60 | 253 | 0.0 | 1.0 | 0.00 | 0.00 | 0.00 | 62 | 1009.4 |
| 20260508223801 | 60 | 253 | 0.0 | 1.0 | 0.00 | 0.00 | 0.00 | 62 | 1009.4 |
| 20260508223601 | 60 | 253 | 1.0 | 1.0 | 0.00 | 0.00 | 0.00 | 63 | 1009.4 |
| 20260508223504 | 60 | 253 | 0.0 | 1.0 | 0.00 | 0.00 | 0.00 | 64 | 1009.4 |
| 20260508223400 | 60 | 253 | 0.0 | 1.0 | 0.00 | 0.00 | 0.00 | 66 | 1009.4 |
| 20260508223301 | 60 | 253 | 1.0 | 2.0 | 0.00 | 0.00 | 0.00 | 65 | 1009.4 |
| 20260508223200 | 60 | 253 | 0.0 | 2.0 | 0.00 | 0.00 | 0.00 | 65 | 1009.4 |
| 20260508223100 | 60 | 253 | 0.0 | 2.0 | 0.00 | 0.00 | 0.00 | 65 | 1009.4 |
| 20260508222901 | 61 | 253 | 0.0 | 2.0 | 0.00 | 0.00 | 0.00 | 64 | 1009.3 |
| 20260508222800 | 61 | 253 | 0.0 | 2.0 | 0.00 | 0.00 | 0.00 | 63 | 1009.3 |
| 20260508222505 | 61 | 253 | 0.0 | 2.0 | 0.00 | 0.00 | 0.00 | 62 | 1009.3 |
| 20260508222401 | 61 | 253 | 0.0 | 2.0 | 0.00 | 0.00 | 0.00 | 61 | 1009.3 |
| 20260508222301 | 61 | 253 | 1.0 | 2.0 | 0.00 | 0.00 | 0.00 | 61 | 1009.3 |
| 20260508222101 | 61 | 253 | 0.0 | 1.0 | 0.00 | 0.00 | 0.00 | 63 | 1009.3 |
| 20260508222006 | 61 | 253 | 0.0 | 1.0 | 0.00 | 0.00 | 0.00 | 62 | 1009.3 |
| 20260508221901 | 61 | 253 | 0.0 | 1.0 | 0.00 | 0.00 | 0.00 | 62 | 1009.3 |
| 20260508221801 | 61 | 253 | 0.0 | 2.0 | 0.00 | 0.00 | 0.00 | 61 | 1009.3 |
| 20260508221700 | 61 | 253 | 0.0 | 2.0 | 0.00 | 0.00 | 0.00 | 61 | 1009.3 |
| 20260508221601 | 61 | 253 | 1.0 | 2.0 | 0.00 | 0.00 | 0.00 | 63 | 1009.3 |
| 20260508221505 | 61 | 253 | 0.0 | 2.0 | 0.00 | 0.00 | 0.00 | 63 | 1009.3 |
| 20260508221402 | 61 | 253 | 0.0 | 3.0 | 0.00 | 0.00 | 0.00 | 61 | 1009.3 |
| 20260508221301 | 61 | 253 | 0.0 | 3.0 | 0.00 | 0.00 | 0.00 | 61 | 1009.3 |
| 20260508221200 | 61 | 253 | 0.0 | 3.0 | 0.00 | 0.00 | 0.00 | 60 | 1009.4 |
| 20260508221101 | 61 | 253 | 0.0 | 3.0 | 0.00 | 0.00 | 0.00 | 60 | 1009.4 |
| 20260508221004 | 61 | 253 | 0.0 | 3.0 | 0.00 | 0.00 | 0.00 | 60 | 1009.3 |
| 20260508220901 | 61 | 253 | 0.0 | 3.0 | 0.00 | 0.00 | 0.00 | 60 | 1009.4 |
| 20260508220800 | 61 | 253 | 0.0 | 3.0 | 0.00 | 0.00 | 0.00 | 60 | 1009.4 |
| 20260508220701 | 61 | 253 | 0.0 | 3.0 | 0.00 | 0.00 | 0.00 | 59 | 1009.4 |
| 20260508220602 | 61 | 253 | 0.0 | 3.0 | 0.00 | 0.00 | 0.00 | 57 | 1009.4 |
| 20260508220504 | 61 | 253 | 1.0 | 4.0 | 0.00 | 0.00 | 0.00 | 58 | 1009.4 |
| 20260508220400 | 61 | 253 | 0.0 | 4.0 | 0.00 | 0.00 | 0.00 | 57 | 1009.4 |
| 20260508220300 | 61 | 253 | 1.0 | 4.0 | 0.00 | 0.00 | 0.00 | 57 | 1009.4 |
| 20260508220201 | 61 | 253 | 1.0 | 4.0 | 0.00 | 0.00 | 0.00 | 58 | 1009.4 |
| 20260508220100 | 61 | 253 | 2.0 | 4.0 | 0.00 | 0.00 | 0.00 | 58 | 1009.4 |
| 20260508215700 | 61 | 253 | 2.0 | 5.0 | 0.00 | 0.00 | 0.00 | 58 | 1009.4 |
| 20260508215601 | 61 | 253 | 1.0 | 5.0 | 0.00 | 0.00 | 0.00 | 58 | 1009.5 |
| 20260508215505 | 61 | 253 | 0.0 | 5.0 | 0.00 | 0.00 | 0.00 | 57 | 1009.5 |
| 20260508215401 | 61 | 253 | 2.0 | 5.0 | 0.00 | 0.00 | 0.00 | 57 | 1009.5 |
| 20260508215301 | 61 | 253 | 1.0 | 8.0 | 0.00 | 0.00 | 0.00 | 57 | 1009.5 |
| 20260508215201 | 61 | 253 | 1.0 | 8.0 | 0.00 | 0.00 | 0.00 | 57 | 1009.5 |
| 20260508215100 | 61 | 229 | 4.0 | 8.0 | 0.00 | 0.00 | 0.00 | 56 | 1009.5 |
| 20260508215004 | 61 | 236 | 1.0 | 8.0 | 0.00 | 0.00 | 0.00 | 59 | 1009.5 |
| 20260508214901 | 62 | 236 | 0.0 | 8.0 | 0.00 | 0.00 | 0.00 | 57 | 1009.4 |
| 20260508214703 | 62 | 236 | 1.0 | 8.0 | 0.00 | 0.00 | 0.00 | 56 | 1009.5 |
| 20260508214600 | 62 | 236 | 2.0 | 8.0 | 0.00 | 0.00 | 0.00 | 56 | 1009.4 |
| 20260508214402 | 62 | 241 | 3.0 | 9.0 | 0.00 | 0.00 | 0.00 | 56 | 1009.4 |
| 20260508214201 | 62 | 252 | 2.0 | 4.0 | 0.00 | 0.00 | 0.00 | 56 | 1009.4 |
| 20260508214100 | 62 | 267 | 1.0 | 5.0 | 0.00 | 0.00 | 0.00 | 55 | 1009.5 |
| 20260508213801 | 62 | 267 | 2.0 | 7.0 | 0.00 | 0.00 | 0.00 | 55 | 1009.4 |
| 20260508213701 | 62 | 265 | 2.0 | 7.0 | 0.00 | 0.00 | 0.00 | 56 | 1009.4 |
| 20260508213601 | 62 | 257 | 2.0 | 7.0 | 0.00 | 0.00 | 0.00 | 55 | 1009.3 |
| 20260508213505 | 62 | 257 | 3.0 | 7.0 | 0.00 | 0.00 | 0.00 | 55 | 1009.3 |
| 20260508213201 | 62 | 251 | 3.0 | 7.0 | 0.00 | 0.00 | 0.00 | 53 | 1009.2 |
| 20260508213101 | 62 | 228 | 3.0 | 7.0 | 0.00 | 0.00 | 0.00 | 56 | 1009.2 |
| 20260508213004 | 62 | 209 | 5.0 | 5.0 | 0.00 | 0.00 | 0.00 | 55 | 1009.3 |
| 20260508212901 | 62 | 236 | 1.0 | 3.0 | 0.00 | 0.00 | 0.00 | 57 | 1009.2 |
| 20260508212801 | 62 | 236 | 1.0 | 3.0 | 0.00 | 0.00 | 0.00 | 58 | 1009.2 |
| 20260508212701 | 62 | 236 | 2.0 | 3.0 | 0.00 | 0.00 | 0.00 | 56 | 1009.2 |
| 20260508212600 | 62 | 236 | 2.0 | 2.0 | 0.00 | 0.00 | 0.00 | 55 | 1009.2 |
| 20260508212400 | 62 | 236 | 1.0 | 2.0 | 0.00 | 0.00 | 0.00 | 52 | 1009.1 |
| 20260508212101 | 62 | 236 | 0.0 | 3.0 | 0.00 | 0.00 | 0.00 | 54 | 1009.2 |
| 20260508212006 | 62 | 236 | 1.0 | 4.0 | 0.00 | 0.00 | 0.00 | 54 | 1009.2 |
| 20260508211901 | 62 | 236 | 1.0 | 6.0 | 0.00 | 0.00 | 0.00 | 59 | 1009.1 |
| 20260508211802 | 62 | 236 | 1.0 | 6.0 | 0.00 | 0.00 | 0.00 | 59 | 1009.1 |
| 20260508211504 | 62 | 235 | 1.0 | 6.0 | 0.00 | 0.00 | 0.00 | 53 | 1009.1 |
| 20260508211259 | 62 | 235 | 2.0 | 6.0 | 0.00 | 0.00 | 0.00 | 55 | 1009.1 |
| 20260508211201 | 62 | 235 | 2.0 | 6.0 | 0.00 | 0.00 | 0.00 | 53 | 1009.2 |
| 20260508211100 | 62 | 235 | 2.0 | 6.0 | 0.00 | 0.00 | 0.00 | 53 | 1009.3 |
| 20260508211004 | 62 | 252 | 2.0 | 4.0 | 0.00 | 0.00 | 0.00 | 57 | 1009.2 |
| 20260508210901 | 62 | 250 | 0.0 | 4.0 | 0.00 | 0.00 | 0.00 | 58 | 1009.2 |
| 20260508210801 | 62 | 250 | 1.0 | 4.0 | 0.00 | 0.00 | 0.00 | 58 | 1009.2 |
| 20260508210701 | 62 | 250 | 1.0 | 4.0 | 0.00 | 0.00 | 0.00 | 53 | 1009.1 |
| 20260508210601 | 62 | 250 | 2.0 | 4.0 | 0.00 | 0.00 | 0.00 | 53 | 1009.1 |
| 20260508210506 | 62 | 259 | 1.0 | 4.0 | 0.00 | 0.00 | 0.00 | 54 | 1009.0 |
| 20260508210400 | 62 | 259 | 2.0 | 2.0 | 0.00 | 0.00 | 0.00 | 54 | 1009.0 |
| 20260508210301 | 62 | 259 | 2.0 | 2.0 | 0.00 | 0.00 | 0.00 | 57 | 1009.0 |
| 20260508210006 | 62 | 259 | 1.0 | 3.0 | 0.00 | 0.00 | 0.00 | 60 | 1009.0 |
| 20260508205901 | 62 | 259 | 0.0 | 3.0 | 0.00 | 0.00 | 0.00 | 59 | 1009.0 |
| 20260508205800 | 62 | 259 | 1.0 | 3.0 | 0.00 | 0.00 | 0.00 | 58 | 1008.9 |
| 20260508205701 | 62 | 259 | 1.0 | 3.0 | 0.00 | 0.00 | 0.00 | 58 | 1009.0 |
| 20260508205601 | 62 | 259 | 1.0 | 3.0 | 0.00 | 0.00 | 0.00 | 57 | 1009.0 |
| 20260508205506 | 62 | 259 | 2.0 | 3.0 | 0.00 | 0.00 | 0.00 | 58 | 1009.1 |
| 20260508205401 | 62 | 252 | 0.0 | 3.0 | 0.00 | 0.00 | 0.00 | 58 | 1009.1 |
| 20260508205305 | 62 | 252 | 0.0 | 3.0 | 0.00 | 0.00 | 0.00 | 58 | 1009.1 |
| 20260508205201 | 62 | 252 | 1.0 | 3.0 | 0.00 | 0.00 | 0.00 | 57 | 1009.1 |
| 20260508205100 | 62 | 275 | 0.0 | 4.0 | 0.00 | 0.00 | 0.00 | 56 | 1009.1 |
| 20260508205005 | 62 | 275 | 1.0 | 4.0 | 0.00 | 0.00 | 0.00 | 55 | 1009.1 |
| 20260508204901 | 62 | 275 | 2.0 | 4.0 | 0.00 | 0.00 | 0.00 | 58 | 1009.0 |
| 20260508204800 | 62 | 275 | 1.0 | 4.0 | 0.00 | 0.00 | 0.00 | 56 | 1009.0 |
| 20260508204701 | 62 | 275 | 1.0 | 4.0 | 0.00 | 0.00 | 0.00 | 56 | 1009.0 |
| 20260508204600 | 62 | 275 | 1.0 | 4.0 | 0.00 | 0.00 | 0.00 | 56 | 1009.0 |
| 20260508204505 | 62 | 275 | 1.0 | 4.0 | 0.00 | 0.00 | 0.00 | 56 | 1009.0 |
| 20260508204400 | 62 | 275 | 1.0 | 4.0 | 0.00 | 0.00 | 0.00 | 54 | 1009.0 |
| 20260508204300 | 62 | 275 | 0.0 | 4.0 | 0.00 | 0.00 | 0.00 | 54 | 1009.0 |
| 20260508204201 | 62 | 254 | 2.0 | 4.0 | 0.00 | 0.00 | 0.00 | 58 | 1009.0 |
| 20260508204100 | 62 | 253 | 1.0 | 4.0 | 0.00 | 0.00 | 0.00 | 56 | 1009.0 |
| 20260508204005 | 62 | 255 | 1.0 | 4.0 | 0.00 | 0.00 | 0.00 | 57 | 1009.1 |
| 20260508203902 | 62 | 255 | 1.0 | 4.0 | 0.00 | 0.00 | 0.00 | 60 | 1009.1 |
| 20260508203701 | 62 | 255 | 1.0 | 4.0 | 0.00 | 0.00 | 0.00 | 59 | 1009.1 |
| 20260508203600 | 62 | 255 | 2.0 | 4.0 | 0.00 | 0.00 | 0.00 | 58 | 1009.2 |
| 20260508203505 | 62 | 255 | 2.0 | 4.0 | 0.00 | 0.00 | 0.00 | 56 | 1009.1 |
| 20260508203402 | 62 | 255 | 3.0 | 4.0 | 0.00 | 0.00 | 0.00 | 61 | 1009.1 |
| 20260508203301 | 62 | 355 | 0.0 | 2.0 | 0.00 | 0.00 | 0.00 | 60 | 1009.1 |
| 20260508203201 | 62 | 355 | 0.0 | 2.0 | 0.00 | 0.00 | 0.00 | 60 | 1009.0 |
| 20260508203102 | 62 | 355 | 0.0 | 3.0 | 0.00 | 0.00 | 0.00 | 62 | 1009.1 |
| 20260508203005 | 62 | 355 | 1.0 | 3.0 | 0.00 | 0.00 | 0.00 | 61 | 1009.1 |
| 20260508202901 | 62 | 355 | 1.0 | 3.0 | 0.00 | 0.00 | 0.00 | 61 | 1009.1 |
| 20260508202702 | 62 | 355 | 0.0 | 3.0 | 0.00 | 0.00 | 0.00 | 58 | 1009.0 |
| 20260508202600 | 62 | 355 | 1.0 | 3.0 | 0.00 | 0.00 | 0.00 | 56 | 1009.0 |
| 20260508202506 | 62 | 355 | 0.0 | 3.0 | 0.00 | 0.00 | 0.00 | 56 | 1009.1 |
| 20260508202401 | 62 | 355 | 0.0 | 3.0 | 0.00 | 0.00 | 0.00 | 58 | 1009.0 |
| 20260508202306 | 62 | 355 | 1.0 | 3.0 | 0.00 | 0.00 | 0.00 | 59 | 1009.1 |
| 20260508202201 | 62 | 355 | 0.0 | 3.0 | 0.00 | 0.00 | 0.00 | 58 | 1009.1 |
| 20260508202101 | 62 | 355 | 2.0 | 3.0 | 0.00 | 0.00 | 0.00 | 57 | 1009.0 |
| 20260508202008 | 62 | 355 | 2.0 | 3.0 | 0.00 | 0.00 | 0.00 | 57 | 1009.1 |
| 20260508201900 | 62 | 355 | 1.0 | 2.0 | 0.00 | 0.00 | 0.00 | 57 | 1009.1 |
| 20260508201802 | 62 | 355 | 0.0 | 1.0 | 0.00 | 0.00 | 0.00 | 56 | 1009.0 |
| 20260508201701 | 62 | 355 | 0.0 | 0.0 | 0.00 | 0.00 | 0.00 | 56 | 1009.0 |
| 20260508201601 | 62 | 355 | 0.0 | 0.0 | 0.00 | 0.00 | 0.00 | 56 | 1009.0 |
| 20260508201505 | 62 | 355 | 0.0 | 0.0 | 0.00 | 0.00 | 0.00 | 55 | 1009.0 |
| 20260508201400 | 62 | 355 | 0.0 | 0.0 | 0.00 | 0.00 | 0.00 | 56 | 1009.0 |
| 20260508201300 | 62 | 355 | 0.0 | 0.0 | 0.00 | 0.00 | 0.00 | 55 | 1009.0 |
| 20260508201203 | 63 | 355 | 0.0 | 0.0 | 0.00 | 0.00 | 0.00 | 56 | 1008.9 |
| 20260508201101 | 63 | 355 | 0.0 | 1.0 | 0.00 | 0.00 | 0.00 | 56 | 1009.0 |
| 20260508201005 | 63 | 355 | 0.0 | 1.0 | 0.00 | 0.00 | 0.00 | 56 | 1009.0 |
| 20260508200901 | 63 | 355 | 0.0 | 1.0 | 0.00 | 0.00 | 0.00 | 57 | 1009.0 |
| 20260508200800 | 63 | 355 | 0.0 | 1.0 | 0.00 | 0.00 | 0.00 | 58 | 1009.0 |
| 20260508200702 | 63 | 355 | 0.0 | 1.0 | 0.00 | 0.00 | 0.00 | 57 | 1009.0 |
| 20260508200601 | 63 | 355 | 0.0 | 2.0 | 0.00 | 0.00 | 0.00 | 55 | 1009.0 |
| 20260508200505 | 63 | 355 | 0.0 | 2.0 | 0.00 | 0.00 | 0.00 | 55 | 1009.0 |
| 20260508200301 | 63 | 355 | 0.0 | 2.0 | 0.00 | 0.00 | 0.00 | 55 | 1009.0 |
| 20260508200202 | 63 | 355 | 0.0 | 4.0 | 0.00 | 0.00 | 0.00 | 56 | 1009.0 |
| 20260508200006 | 63 | 355 | 0.0 | 4.0 | 0.00 | 0.00 | 0.00 | 56 | 1009.0 |
| 20260508195703 | 63 | 355 | 1.0 | 4.0 | 0.00 | 0.00 | 0.00 | 58 | 1009.0 |
| 20260508195602 | 63 | 355 | 0.0 | 4.0 | 0.00 | 0.00 | 0.00 | 56 | 1009.1 |
| 20260508195506 | 63 | 355 | 1.0 | 4.0 | 0.00 | 0.00 | 0.00 | 56 | 1009.1 |
| 20260508195400 | 63 | 355 | 0.0 | 4.0 | 0.00 | 0.00 | 0.00 | 54 | 1009.2 |
| 20260508195301 | 63 | 355 | 3.0 | 4.0 | 0.00 | 0.00 | 0.00 | 54 | 1009.1 |
| 20260508195102 | 63 | 225 | 1.0 | 3.0 | 0.00 | 0.00 | 0.00 | 56 | 1009.2 |
| 20260508195005 | 63 | 225 | 2.0 | 3.0 | 0.00 | 0.00 | 0.00 | 57 | 1009.2 |
| 20260508194801 | 63 | 225 | 0.0 | 3.0 | 0.00 | 0.00 | 0.00 | 55 | 1009.1 |
| 20260508194700 | 63 | 225 | 1.0 | 3.0 | 0.00 | 0.00 | 0.00 | 56 | 1009.2 |
| 20260508194505 | 64 | 190 | 1.0 | 2.0 | 0.00 | 0.00 | 0.00 | 55 | 1009.2 |
| 20260508194400 | 64 | 190 | 0.0 | 2.0 | 0.00 | 0.00 | 0.00 | 54 | 1009.2 |
| 20260508194303 | 64 | 190 | 0.0 | 2.0 | 0.00 | 0.00 | 0.00 | 54 | 1009.2 |
| 20260508194100 | 64 | 190 | 1.0 | 3.0 | 0.00 | 0.00 | 0.00 | 53 | 1009.2 |
| 20260508194005 | 64 | 190 | 0.0 | 3.0 | 0.00 | 0.00 | 0.00 | 54 | 1009.2 |
| 20260508193901 | 64 | 190 | 0.0 | 3.0 | 0.00 | 0.00 | 0.00 | 51 | 1009.2 |
| 20260508193802 | 64 | 190 | 1.0 | 3.0 | 0.00 | 0.00 | 0.00 | 54 | 1009.2 |
| 20260508193701 | 64 | 190 | 2.0 | 5.0 | 0.00 | 0.00 | 0.00 | 54 | 1009.3 |
| 20260508193602 | 64 | 190 | 1.0 | 5.0 | 0.00 | 0.00 | 0.00 | 54 | 1009.3 |
| 20260508193504 | 64 | 190 | 1.0 | 5.0 | 0.00 | 0.00 | 0.00 | 52 | 1009.4 |
| 20260508193401 | 64 | 190 | 1.0 | 5.0 | 0.00 | 0.00 | 0.00 | 51 | 1009.3 |
| 20260508193301 | 64 | 190 | 0.0 | 5.0 | 0.00 | 0.00 | 0.00 | 52 | 1009.3 |
| 20260508193101 | 64 | 190 | 1.0 | 5.0 | 0.00 | 0.00 | 0.00 | 55 | 1009.3 |
| 20260508193005 | 64 | 152 | 2.0 | 5.0 | 0.00 | 0.00 | 0.00 | 57 | 1009.3 |
| 20260508192901 | 64 | 312 | 2.0 | 5.0 | 0.00 | 0.00 | 0.00 | 51 | 1009.3 |
| 20260508192801 | 64 | 312 | 2.0 | 5.0 | 0.00 | 0.00 | 0.00 | 52 | 1009.3 |
| 20260508192505 | 64 | 211 | 1.0 | 5.0 | 0.00 | 0.00 | 0.00 | 56 | 1009.3 |
| 20260508192402 | 64 | 211 | 2.0 | 5.0 | 0.00 | 0.00 | 0.00 | 54 | 1009.3 |
| 20260508192301 | 64 | 211 | 1.0 | 5.0 | 0.00 | 0.00 | 0.00 | 53 | 1009.3 |
| 20260508192202 | 64 | 211 | 2.0 | 5.0 | 0.00 | 0.00 | 0.00 | 53 | 1009.3 |
| 20260508192103 | 63 | 211 | 4.0 | 4.0 | 0.00 | 0.00 | 0.00 | 56 | 1009.4 |
| 20260508192006 | 63 | 211 | 2.0 | 3.0 | 0.00 | 0.00 | 0.00 | 56 | 1009.4 |
| 20260508191903 | 63 | 211 | 1.0 | 3.0 | 0.00 | 0.00 | 0.00 | 56 | 1009.4 |
| 20260508191801 | 63 | 210 | 1.0 | 3.0 | 0.00 | 0.00 | 0.00 | 57 | 1009.4 |
| 20260508191601 | 63 | 209 | 0.0 | 3.0 | 0.00 | 0.00 | 0.00 | 59 | 1009.5 |
| 20260508191505 | 63 | 213 | 1.0 | 3.0 | 0.00 | 0.00 | 0.00 | 55 | 1009.6 |
| 20260508191402 | 63 | 213 | 1.0 | 3.0 | 0.00 | 0.00 | 0.00 | 55 | 1009.6 |
| 20260508191300 | 63 | 213 | 3.0 | 3.0 | 0.00 | 0.00 | 0.00 | 54 | 1009.6 |
| 20260508191202 | 63 | 213 | 2.0 | 2.0 | 0.00 | 0.00 | 0.00 | 55 | 1009.7 |
| 20260508191101 | 63 | 213 | 1.0 | 2.0 | 0.00 | 0.00 | 0.00 | 57 | 1009.7 |
| 20260508191005 | 63 | 213 | 0.0 | 2.0 | 0.00 | 0.00 | 0.00 | 55 | 1009.8 |
| 20260508190902 | 63 | 213 | 1.0 | 2.0 | 0.00 | 0.00 | 0.00 | 57 | 1009.8 |
| 20260508190801 | 63 | 213 | 1.0 | 2.0 | 0.00 | 0.00 | 0.00 | 59 | 1009.8 |
| 20260508190600 | 63 | 213 | 1.0 | 2.0 | 0.00 | 0.00 | 0.00 | 57 | 1009.9 |
| 20260508190505 | 62 | 213 | 0.0 | 2.0 | 0.00 | 0.00 | 0.00 | 58 | 1009.9 |
| 20260508190400 | 62 | 213 | 0.0 | 2.0 | 0.00 | 0.00 | 0.00 | 57 | 1009.9 |
| 20260508190300 | 62 | 213 | 2.0 | 2.0 | 0.00 | 0.00 | 0.00 | 58 | 1009.9 |
| 20260508190203 | 62 | 213 | 1.0 | 2.0 | 0.00 | 0.00 | 0.00 | 61 | 1009.9 |
| 20260508190005 | 62 | 213 | 0.0 | 2.0 | 0.00 | 0.00 | 0.00 | 56 | 1010.0 |
| 20260508185900 | 62 | 213 | 2.0 | 3.0 | 0.00 | 0.00 | 0.00 | 57 | 1010.0 |
| 20260508185702 | 62 | 213 | 0.0 | 3.0 | 0.00 | 0.00 | 0.00 | 60 | 1010.0 |
| 20260508185505 | 62 | 213 | 0.0 | 3.0 | 0.00 | 0.00 | 0.00 | 61 | 1010.0 |
| 20260508185400 | 62 | 213 | 0.0 | 3.0 | 0.00 | 0.00 | 0.00 | 59 | 1010.0 |
| 20260508185305 | 62 | 213 | 0.0 | 3.0 | 0.00 | 0.00 | 0.00 | 59 | 1010.0 |
| 20260508185201 | 62 | 213 | 0.0 | 3.0 | 0.00 | 0.00 | 0.00 | 59 | 1010.0 |
| 20260508184902 | 61 | 213 | 1.0 | 4.0 | 0.00 | 0.00 | 0.00 | 55 | 1010.0 |
| 20260508184801 | 61 | 213 | 2.0 | 4.0 | 0.00 | 0.00 | 0.00 | 58 | 1010.0 |
| 20260508184701 | 61 | 213 | 2.0 | 4.0 | 0.00 | 0.00 | 0.00 | 57 | 1010.0 |
| 20260508184505 | 61 | 213 | 2.0 | 4.0 | 0.00 | 0.00 | 0.00 | 55 | 1010.0 |
| 20260508184401 | 61 | 213 | 0.0 | 4.0 | 0.00 | 0.00 | 0.00 | 55 | 1010.0 |
| 20260508184301 | 61 | 213 | 2.0 | 4.0 | 0.00 | 0.00 | 0.00 | 56 | 1010.1 |
| 20260508184101 | 61 | 208 | 2.0 | 4.0 | 0.00 | 0.00 | 0.00 | 54 | 1010.1 |
| 20260508184005 | 61 | 208 | 4.0 | 8.0 | 0.00 | 0.00 | 0.00 | 54 | 1010.1 |
| 20260508183859 | 61 | 250 | 2.0 | 8.0 | 0.00 | 0.00 | 0.00 | 54 | 1010.1 |
| 20260508183800 | 61 | 250 | 2.0 | 8.0 | 0.00 | 0.00 | 0.00 | 55 | 1010.1 |
| 20260508183505 | 61 | 247 | 2.0 | 8.0 | 0.00 | 0.00 | 0.00 | 54 | 1010.1 |
| 20260508183401 | 61 | 247 | 0.0 | 8.0 | 0.00 | 0.00 | 0.00 | 56 | 1010.1 |
| 20260508183301 | 61 | 246 | 2.0 | 9.0 | 0.00 | 0.00 | 0.00 | 55 | 1010.1 |
| 20260508182902 | 62 | 267 | 2.0 | 9.0 | 0.00 | 0.00 | 0.00 | 53 | 1010.1 |
| 20260508182701 | 62 | 233 | 2.0 | 9.0 | 0.00 | 0.00 | 0.00 | 54 | 1010.0 |
| 20260508182602 | 62 | 256 | 1.0 | 9.0 | 0.00 | 0.00 | 0.00 | 54 | 1010.0 |
| 20260508182504 | 62 | 256 | 3.0 | 9.0 | 0.00 | 0.00 | 0.00 | 53 | 1010.0 |
| 20260508182301 | 63 | 252 | 2.0 | 5.0 | 0.00 | 0.00 | 0.00 | 55 | 1010.0 |
| 20260508182201 | 63 | 258 | 4.0 | 5.0 | 0.00 | 0.00 | 0.00 | 56 | 1009.9 |
| 20260508182102 | 63 | 257 | 1.0 | 5.0 | 0.00 | 0.00 | 0.00 | 56 | 1010.0 |
| 20260508182006 | 63 | 300 | 2.0 | 5.0 | 0.00 | 0.00 | 0.00 | 56 | 1009.9 |
| 20260508181800 | 63 | 313 | 2.0 | 5.0 | 0.00 | 0.00 | 0.00 | 54 | 1009.9 |
| 20260508181700 | 63 | 321 | 4.0 | 7.0 | 0.00 | 0.00 | 0.00 | 52 | 1010.0 |
| 20260508181600 | 63 | 221 | 2.0 | 7.0 | 0.00 | 0.00 | 0.00 | 53 | 1010.0 |
| 20260508181505 | 63 | 246 | 2.0 | 7.0 | 0.00 | 0.00 | 0.00 | 53 | 1010.0 |
| 20260508181402 | 63 | 257 | 1.0 | 7.0 | 0.00 | 0.00 | 0.00 | 55 | 1010.0 |
| 20260508181303 | 63 | 257 | 3.0 | 7.0 | 0.00 | 0.00 | 0.00 | 53 | 1010.0 |
| 20260508181203 | 63 | 258 | 2.0 | 8.0 | 0.00 | 0.00 | 0.00 | 52 | 1010.1 |
| 20260508181103 | 63 | 257 | 1.0 | 8.0 | 0.00 | 0.00 | 0.00 | 54 | 1010.1 |
| 20260508181005 | 63 | 260 | 3.0 | 8.0 | 0.00 | 0.00 | 0.00 | 52 | 1010.1 |
| 20260508180902 | 63 | 261 | 3.0 | 8.0 | 0.00 | 0.00 | 0.00 | 53 | 1010.1 |
| 20260508180801 | 63 | 274 | 3.0 | 8.0 | 0.00 | 0.00 | 0.00 | 52 | 1010.1 |
| 20260508180703 | 62 | 257 | 3.0 | 8.0 | 0.00 | 0.00 | 0.00 | 55 | 1010.2 |
| 20260508180505 | 62 | 231 | 3.0 | 8.0 | 0.00 | 0.00 | 0.00 | 56 | 1010.2 |
| 20260508180101 | 61 | 216 | 0.0 | 8.0 | 0.00 | 0.00 | 0.00 | 57 | 1010.3 |
| 20260508180006 | 61 | 216 | 2.0 | 8.0 | 0.00 | 0.00 | 0.00 | 58 | 1010.4 |
| 20260508175903 | 61 | 269 | 2.0 | 8.0 | 0.00 | 0.00 | 0.00 | 57 | 1010.3 |
| 20260508175800 | 61 | 273 | 3.0 | 8.0 | 0.00 | 0.00 | 0.00 | 55 | 1010.4 |
| 20260508175701 | 61 | 267 | 6.0 | 8.0 | 0.00 | 0.00 | 0.00 | 58 | 1010.4 |
| 20260508175601 | 61 | 245 | 3.0 | 8.0 | 0.00 | 0.00 | 0.00 | 56 | 1010.5 |
| 20260508175505 | 60 | 259 | 3.0 | 8.0 | 0.00 | 0.00 | 0.00 | 55 | 1010.5 |
| 20260508175402 | 60 | 286 | 4.0 | 8.0 | 0.00 | 0.00 | 0.00 | 57 | 1010.5 |
| 20260508175305 | 60 | 251 | 5.0 | 7.0 | 0.00 | 0.00 | 0.00 | 58 | 1010.6 |
| 20260508175202 | 60 | 259 | 1.0 | 7.0 | 0.00 | 0.00 | 0.00 | 58 | 1010.5 |
| 20260508175100 | 60 | 254 | 2.0 | 7.0 | 0.00 | 0.00 | 0.00 | 55 | 1010.5 |
| 20260508175007 | 60 | 254 | 1.0 | 11.0 | 0.00 | 0.00 | 0.00 | 56 | 1010.5 |
| 20260508174902 | 60 | 255 | 1.0 | 11.0 | 0.00 | 0.00 | 0.00 | 55 | 1010.6 |
| 20260508174802 | 60 | 248 | 2.0 | 11.0 | 0.00 | 0.00 | 0.00 | 56 | 1010.6 |
| 20260508174701 | 60 | 227 | 2.0 | 11.0 | 0.00 | 0.00 | 0.00 | 55 | 1010.6 |
| 20260508174601 | 60 | 264 | 3.0 | 11.0 | 0.00 | 0.00 | 0.00 | 55 | 1010.7 |
| 20260508174504 | 60 | 253 | 3.0 | 11.0 | 0.00 | 0.00 | 0.00 | 55 | 1010.7 |
| 20260508174401 | 60 | 267 | 6.0 | 11.0 | 0.00 | 0.00 | 0.00 | 54 | 1010.7 |
| 20260508174301 | 60 | 258 | 3.0 | 11.0 | 0.00 | 0.00 | 0.00 | 55 | 1010.7 |
| 20260508174101 | 60 | 257 | 3.0 | 11.0 | 0.00 | 0.00 | 0.00 | 55 | 1010.6 |
| 20260508174005 | 60 | 221 | 2.0 | 11.0 | 0.00 | 0.00 | 0.00 | 54 | 1010.6 |
| 20260508173701 | 60 | 250 | 5.0 | 11.0 | 0.00 | 0.00 | 0.00 | 55 | 1010.6 |
| 20260508173601 | 60 | 300 | 7.0 | 11.0 | 0.00 | 0.00 | 0.00 | 56 | 1010.7 |
| 20260508173505 | 60 | 261 | 3.0 | 7.0 | 0.00 | 0.00 | 0.00 | 57 | 1010.7 |
| 20260508173401 | 60 | 257 | 2.0 | 7.0 | 0.00 | 0.00 | 0.00 | 57 | 1010.6 |
| 20260508173202 | 60 | 256 | 2.0 | 8.0 | 0.00 | 0.00 | 0.00 | 54 | 1010.4 |
| 20260508173100 | 60 | 258 | 4.0 | 8.0 | 0.00 | 0.00 | 0.00 | 55 | 1010.5 |
| 20260508173006 | 60 | 261 | 3.0 | 9.0 | 0.00 | 0.00 | 0.00 | 56 | 1010.5 |
| 20260508172900 | 60 | 212 | 3.0 | 9.0 | 0.00 | 0.00 | 0.00 | 55 | 1010.6 |
| 20260508172701 | 60 | 259 | 4.0 | 9.0 | 0.00 | 0.00 | 0.00 | 57 | 1010.5 |
| 20260508172600 | 60 | 259 | 2.0 | 9.0 | 0.00 | 0.00 | 0.00 | 55 | 1010.7 |
| 20260508172507 | 60 | 244 | 4.0 | 9.0 | 0.00 | 0.00 | 0.00 | 54 | 1010.6 |
| 20260508172307 | 60 | 250 | 2.0 | 9.0 | 0.00 | 0.00 | 0.00 | 55 | 1010.6 |
| 20260508172101 | 60 | 261 | 2.0 | 9.0 | 0.00 | 0.00 | 0.00 | 54 | 1010.6 |
| 20260508172006 | 60 | 263 | 7.0 | 7.0 | 0.00 | 0.00 | 0.00 | 56 | 1010.5 |
| 20260508171800 | 60 | 275 | 2.0 | 7.0 | 0.00 | 0.00 | 0.00 | 54 | 1010.5 |
| 20260508171701 | 60 | 329 | 4.0 | 7.0 | 0.00 | 0.00 | 0.00 | 56 | 1010.5 |
| 20260508171601 | 60 | 207 | 2.0 | 7.0 | 0.00 | 0.00 | 0.00 | 55 | 1010.5 |
| 20260508171401 | 60 | 231 | 2.0 | 7.0 | 0.00 | 0.00 | 0.00 | 54 | 1010.6 |
| 20260508171300 | 60 | 231 | 2.0 | 7.0 | 0.00 | 0.00 | 0.00 | 56 | 1010.7 |
| 20260508171202 | 60 | 231 | 4.0 | 11.0 | 0.00 | 0.00 | 0.00 | 54 | 1010.6 |
| 20260508171101 | 60 | 240 | 3.0 | 11.0 | 0.00 | 0.00 | 0.00 | 55 | 1010.7 |
| 20260508171004 | 60 | 246 | 3.0 | 11.0 | 0.00 | 0.00 | 0.00 | 55 | 1010.6 |
| 20260508170901 | 60 | 242 | 2.0 | 11.0 | 0.00 | 0.00 | 0.00 | 55 | 1010.6 |
| 20260508170801 | 60 | 252 | 4.0 | 11.0 | 0.00 | 0.00 | 0.00 | 54 | 1010.6 |
| 20260508170701 | 60 | 213 | 3.0 | 11.0 | 0.00 | 0.00 | 0.00 | 54 | 1010.7 |
| 20260508170602 | 60 | 229 | 3.0 | 11.0 | 0.00 | 0.00 | 0.00 | 55 | 1010.6 |
| 20260508170505 | 61 | 265 | 2.0 | 11.0 | 0.00 | 0.00 | 0.00 | 55 | 1010.7 |
| 20260508170401 | 61 | 268 | 1.0 | 11.0 | 0.00 | 0.00 | 0.00 | 53 | 1010.6 |
| 20260508170300 | 61 | 272 | 4.0 | 11.0 | 0.00 | 0.00 | 0.00 | 54 | 1010.6 |
| 20260508170201 | 61 | 267 | 6.0 | 10.0 | 0.00 | 0.00 | 0.00 | 54 | 1010.6 |
| 20260508165902 | 61 | 266 | 2.0 | 10.0 | 0.00 | 0.00 | 0.00 | 53 | 1010.7 |
| 20260508165801 | 61 | 262 | 3.0 | 10.0 | 0.00 | 0.00 | 0.00 | 52 | 1010.7 |
| 20260508165702 | 61 | 252 | 3.0 | 10.0 | 0.00 | 0.00 | 0.00 | 54 | 1010.7 |
| 20260508165600 | 61 | 227 | 4.0 | 10.0 | 0.00 | 0.00 | 0.00 | 53 | 1010.7 |
| 20260508165505 | 61 | 240 | 4.0 | 10.0 | 0.00 | 0.00 | 0.00 | 53 | 1010.7 |
| 20260508165401 | 61 | 243 | 2.0 | 10.0 | 0.00 | 0.00 | 0.00 | 53 | 1010.7 |
| 20260508165301 | 61 | 292 | 4.0 | 10.0 | 0.00 | 0.00 | 0.00 | 53 | 1010.7 |
| 20260508165200 | 61 | 245 | 2.0 | 10.0 | 0.00 | 0.00 | 0.00 | 55 | 1010.7 |
| 20260508165101 | 61 | 239 | 2.0 | 10.0 | 0.00 | 0.00 | 0.00 | 54 | 1010.8 |
| 20260508165004 | 61 | 239 | 2.0 | 10.0 | 0.00 | 0.00 | 0.00 | 53 | 1010.7 |
| 20260508164901 | 61 | 302 | 2.0 | 10.0 | 0.00 | 0.00 | 0.00 | 55 | 1010.8 |
| 20260508164800 | 61 | 269 | 3.0 | 10.0 | 0.00 | 0.00 | 0.00 | 53 | 1010.8 |
| 20260508164700 | 61 | 249 | 3.0 | 10.0 | 0.00 | 0.00 | 0.00 | 55 | 1010.8 |
| 20260508164600 | 61 | 219 | 3.0 | 10.0 | 0.00 | 0.00 | 0.00 | 54 | 1010.8 |
| 20260508164505 | 61 | 250 | 9.0 | 10.0 | 0.00 | 0.00 | 0.00 | 56 | 1010.7 |
| 20260508164401 | 61 | 257 | 2.0 | 9.0 | 0.00 | 0.00 | 0.00 | 53 | 1010.8 |
| 20260508164301 | 61 | 277 | 4.0 | 8.0 | 0.00 | 0.00 | 0.00 | 55 | 1010.7 |
| 20260508164201 | 61 | 219 | 5.0 | 7.0 | 0.00 | 0.00 | 0.00 | 57 | 1010.7 |
| 20260508163901 | 61 | 241 | 2.0 | 7.0 | 0.00 | 0.00 | 0.00 | 54 | 1010.9 |
| 20260508163801 | 61 | 247 | 2.0 | 7.0 | 0.00 | 0.00 | 0.00 | 54 | 1010.9 |
| 20260508163701 | 61 | 248 | 2.0 | 6.0 | 0.00 | 0.00 | 0.00 | 55 | 1010.9 |
| 20260508163601 | 61 | 240 | 4.0 | 10.0 | 0.00 | 0.00 | 0.00 | 54 | 1010.9 |
| 20260508163505 | 61 | 247 | 3.0 | 10.0 | 0.00 | 0.00 | 0.00 | 54 | 1010.9 |
| 20260508163401 | 61 | 243 | 2.0 | 10.0 | 0.00 | 0.00 | 0.00 | 56 | 1010.9 |
| 20260508163202 | 61 | 250 | 2.0 | 10.0 | 0.00 | 0.00 | 0.00 | 54 | 1010.9 |
| 20260508163101 | 61 | 217 | 2.0 | 10.0 | 0.00 | 0.00 | 0.00 | 53 | 1010.9 |
| 20260508163004 | 62 | 217 | 5.0 | 10.0 | 0.00 | 0.00 | 0.00 | 54 | 1010.9 |
| 20260508162901 | 62 | 211 | 4.0 | 10.0 | 0.00 | 0.00 | 0.00 | 53 | 1011.0 |
| 20260508162800 | 62 | 272 | 4.0 | 10.0 | 0.00 | 0.00 | 0.00 | 54 | 1010.9 |
| 20260508162601 | 62 | 248 | 5.0 | 9.0 | 0.00 | 0.00 | 0.00 | 53 | 1010.9 |
| 20260508162505 | 62 | 261 | 6.0 | 9.0 | 0.00 | 0.00 | 0.00 | 57 | 1011.0 |
| 20260508162403 | 62 | 110 | 2.0 | 9.0 | 0.00 | 0.00 | 0.00 | 55 | 1011.0 |
| 20260508162301 | 62 | 58 | 2.0 | 9.0 | 0.00 | 0.00 | 0.00 | 57 | 1011.0 |
| 20260508162201 | 62 | 201 | 3.0 | 9.0 | 0.00 | 0.00 | 0.00 | 61 | 1011.0 |
| 20260508162101 | 61 | 237 | 0.0 | 9.0 | 0.00 | 0.00 | 0.00 | 55 | 1011.1 |
| 20260508161900 | 61 | 325 | 2.0 | 9.0 | 0.00 | 0.00 | 0.00 | 57 | 1011.1 |
| 20260508161800 | 61 | 279 | 2.0 | 7.0 | 0.00 | 0.00 | 0.00 | 55 | 1011.1 |
| 20260508161701 | 61 | 278 | 2.0 | 7.0 | 0.00 | 0.00 | 0.00 | 55 | 1011.1 |
| 20260508161505 | 61 | 278 | 2.0 | 7.0 | 0.00 | 0.00 | 0.00 | 58 | 1011.2 |
| 20260508161300 | 61 | 256 | 3.0 | 6.0 | 0.00 | 0.00 | 0.00 | 57 | 1011.2 |
| 20260508161202 | 61 | 234 | 2.0 | 5.0 | 0.00 | 0.00 | 0.00 | 60 | 1011.2 |
| 20260508161100 | 61 | 212 | 1.0 | 5.0 | 0.00 | 0.00 | 0.00 | 56 | 1011.2 |
| 20260508161005 | 61 | 212 | 1.0 | 5.0 | 0.00 | 0.00 | 0.00 | 57 | 1011.2 |
| 20260508160902 | 60 | 211 | 2.0 | 5.0 | 0.00 | 0.00 | 0.00 | 59 | 1011.3 |
| 20260508160801 | 60 | 209 | 5.0 | 6.0 | 0.00 | 0.00 | 0.00 | 58 | 1011.2 |
| 20260508160701 | 60 | 213 | 2.0 | 6.0 | 0.00 | 0.00 | 0.00 | 59 | 1011.3 |
| 20260508160601 | 60 | 138 | 2.0 | 6.0 | 0.00 | 0.00 | 0.00 | 58 | 1011.3 |
| 20260508160506 | 60 | 123 | 2.0 | 6.0 | 0.00 | 0.00 | 0.00 | 57 | 1011.3 |
| 20260508160402 | 60 | 122 | 1.0 | 6.0 | 0.00 | 0.00 | 0.00 | 59 | 1011.3 |
| 20260508160301 | 60 | 122 | 2.0 | 6.0 | 0.00 | 0.00 | 0.00 | 59 | 1011.2 |
| 20260508160203 | 60 | 123 | 4.0 | 6.0 | 0.00 | 0.00 | 0.00 | 55 | 1011.3 |
| 20260508160003 | 60 | 286 | 3.0 | 6.0 | 0.00 | 0.00 | 0.00 | 57 | 1011.4 |
| 20260508155900 | 60 | 260 | 2.0 | 6.0 | 0.00 | 0.00 | 0.00 | 59 | 1011.3 |
| 20260508155802 | 60 | 240 | 1.0 | 6.0 | 0.00 | 0.00 | 0.00 | 57 | 1011.3 |
| 20260508155659 | 60 | 230 | 0.0 | 6.0 | 0.00 | 0.00 | 0.00 | 55 | 1011.3 |
| 20260508155559 | 61 | 230 | 2.0 | 6.0 | 0.00 | 0.00 | 0.00 | 55 | 1011.4 |
| 20260508155359 | 61 | 214 | 3.0 | 6.0 | 0.00 | 0.00 | 0.00 | 55 | 1011.4 |
| 20260508155300 | 61 | 215 | 6.0 | 7.0 | 0.00 | 0.00 | 0.00 | 56 | 1011.4 |
| 20260508155159 | 61 | 224 | 4.0 | 7.0 | 0.00 | 0.00 | 0.00 | 55 | 1011.4 |
| 20260508155100 | 62 | 219 | 2.0 | 9.0 | 0.00 | 0.00 | 0.00 | 54 | 1011.4 |
| 20260508155004 | 62 | 239 | 4.0 | 9.0 | 0.00 | 0.00 | 0.00 | 55 | 1011.4 |
| 20260508154859 | 62 | 265 | 3.0 | 9.0 | 0.00 | 0.00 | 0.00 | 56 | 1011.5 |
| 20260508154800 | 62 | 323 | 2.0 | 9.0 | 0.00 | 0.00 | 0.00 | 55 | 1011.5 |
| 20260508154701 | 62 | 215 | 3.0 | 9.0 | 0.00 | 0.00 | 0.00 | 56 | 1011.4 |
| 20260508154600 | 62 | 212 | 5.0 | 9.0 | 0.00 | 0.00 | 0.00 | 58 | 1011.5 |
| 20260508154505 | 62 | 265 | 2.0 | 9.0 | 0.00 | 0.00 | 0.00 | 53 | 1011.5 |
| 20260508154359 | 62 | 275 | 3.0 | 9.0 | 0.00 | 0.00 | 0.00 | 55 | 1011.5 |
| 20260508154259 | 62 | 294 | 2.0 | 9.0 | 0.00 | 0.00 | 0.00 | 57 | 1011.5 |
| 20260508154201 | 62 | 257 | 4.0 | 11.0 | 0.00 | 0.00 | 0.00 | 54 | 1011.5 |
| 20260508154101 | 62 | 315 | 3.0 | 11.0 | 0.00 | 0.00 | 0.00 | 55 | 1011.4 |
| 20260508154004 | 62 | 204 | 3.0 | 11.0 | 0.00 | 0.00 | 0.00 | 60 | 1011.3 |
| 20260508153900 | 62 | 262 | 1.0 | 11.0 | 0.00 | 0.00 | 0.00 | 58 | 1011.3 |
| 20260508153800 | 61 | 244 | 2.0 | 11.0 | 0.00 | 0.00 | 0.00 | 55 | 1011.3 |
| 20260508153700 | 61 | 203 | 6.0 | 11.0 | 0.00 | 0.00 | 0.00 | 59 | 1011.4 |
| 20260508153559 | 61 | 256 | 2.0 | 11.0 | 0.00 | 0.00 | 0.00 | 57 | 1011.4 |
| 20260508153504 | 61 | 261 | 3.0 | 11.0 | 0.00 | 0.00 | 0.00 | 57 | 1011.4 |
| 20260508153300 | 61 | 229 | 4.0 | 11.0 | 0.00 | 0.00 | 0.00 | 58 | 1011.4 |
| 20260508153201 | 61 | 259 | 4.0 | 8.0 | 0.00 | 0.00 | 0.00 | 56 | 1011.5 |
| 20260508153006 | 61 | 178 | 3.0 | 8.0 | 0.00 | 0.00 | 0.00 | 58 | 1011.4 |
| 20260508152800 | 61 | 273 | 4.0 | 6.0 | 0.00 | 0.00 | 0.00 | 57 | 1011.4 |
| 20260508152600 | 61 | 229 | 1.0 | 6.0 | 0.00 | 0.00 | 0.00 | 58 | 1011.4 |
| 20260508152505 | 61 | 178 | 2.0 | 6.0 | 0.00 | 0.00 | 0.00 | 59 | 1011.4 |
| 20260508152400 | 61 | 178 | 1.0 | 6.0 | 0.00 | 0.00 | 0.00 | 59 | 1011.4 |
| 20260508152301 | 60 | 287 | 2.0 | 6.0 | 0.00 | 0.00 | 0.00 | 59 | 1011.5 |
| 20260508152200 | 60 | 293 | 5.0 | 6.0 | 0.00 | 0.00 | 0.00 | 58 | 1011.6 |
| 20260508152058 | 60 | 292 | 2.0 | 7.0 | 0.00 | 0.00 | 0.00 | 58 | 1011.5 |
| 20260508152005 | 60 | 292 | 2.0 | 7.0 | 0.00 | 0.00 | 0.00 | 58 | 1011.5 |
| 20260508151900 | 60 | 295 | 4.0 | 7.0 | 0.00 | 0.00 | 0.00 | 57 | 1011.5 |
| 20260508151800 | 60 | 294 | 2.0 | 7.0 | 0.00 | 0.00 | 0.00 | 58 | 1011.6 |
| 20260508151700 | 60 | 295 | 3.0 | 7.0 | 0.00 | 0.00 | 0.00 | 58 | 1011.6 |
| 20260508151601 | 60 | 267 | 4.0 | 7.0 | 0.00 | 0.00 | 0.00 | 61 | 1011.7 |
| 20260508151505 | 59 | 233 | 2.0 | 8.0 | 0.00 | 0.00 | 0.00 | 60 | 1011.7 |
| 20260508151400 | 59 | 238 | 2.0 | 8.0 | 0.00 | 0.00 | 0.00 | 58 | 1011.7 |
| 20260508151300 | 59 | 248 | 4.0 | 8.0 | 0.00 | 0.00 | 0.00 | 58 | 1011.7 |
| 20260508151101 | 59 | 292 | 1.0 | 8.0 | 0.00 | 0.00 | 0.00 | 58 | 1011.8 |
| 20260508151005 | 59 | 261 | 4.0 | 8.0 | 0.00 | 0.00 | 0.00 | 60 | 1011.8 |
| 20260508150901 | 59 | 261 | 2.0 | 8.0 | 0.00 | 0.00 | 0.00 | 60 | 1011.8 |
| 20260508150800 | 59 | 261 | 1.0 | 8.0 | 0.00 | 0.00 | 0.00 | 59 | 1011.9 |
| 20260508150700 | 59 | 258 | 3.0 | 8.0 | 0.00 | 0.00 | 0.00 | 58 | 1011.9 |
| 20260508150600 | 59 | 262 | 6.0 | 8.0 | 0.00 | 0.00 | 0.00 | 58 | 1011.9 |
| 20260508150501 | 59 | 275 | 6.0 | 6.0 | 0.00 | 0.00 | 0.00 | 59 | 1011.9 |
| 20260508150401 | 59 | 231 | 1.0 | 6.0 | 0.00 | 0.00 | 0.00 | 58 | 1011.9 |
| 20260508150302 | 59 | 231 | 2.0 | 6.0 | 0.00 | 0.00 | 0.00 | 61 | 1011.9 |
| 20260508150159 | 59 | 214 | 4.0 | 6.0 | 0.00 | 0.00 | 0.00 | 61 | 1011.9 |
| 20260508150100 | 59 | 297 | 1.0 | 7.0 | 0.00 | 0.00 | 0.00 | 62 | 1011.9 |
| 20260508150006 | 59 | 297 | 1.0 | 7.0 | 0.00 | 0.00 | 0.00 | 60 | 1012.0 |
| 20260508145900 | 59 | 297 | 2.0 | 7.0 | 0.00 | 0.00 | 0.00 | 60 | 1012.0 |
| 20260508145801 | 59 | 297 | 3.0 | 7.0 | 0.00 | 0.00 | 0.00 | 60 | 1012.0 |
| 20260508145701 | 59 | 297 | 3.0 | 7.0 | 0.00 | 0.00 | 0.00 | 58 | 1012.1 |
| 20260508145603 | 59 | 276 | 2.0 | 7.0 | 0.00 | 0.00 | 0.00 | 58 | 1012.2 |
| 20260508145504 | 59 | 239 | 3.0 | 7.0 | 0.00 | 0.00 | 0.00 | 59 | 1012.1 |
| 20260508145401 | 59 | 155 | 3.0 | 7.0 | 0.00 | 0.00 | 0.00 | 65 | 1012.2 |
| 20260508145301 | 58 | 155 | 0.0 | 7.0 | 0.00 | 0.00 | 0.00 | 62 | 1012.2 |
| 20260508145202 | 58 | 155 | 1.0 | 7.0 | 0.00 | 0.00 | 0.00 | 62 | 1012.2 |
| 20260508145103 | 58 | 155 | 3.0 | 7.0 | 0.00 | 0.00 | 0.00 | 65 | 1012.2 |
| 20260508145005 | 58 | 200 | 2.0 | 5.0 | 0.00 | 0.00 | 0.00 | 61 | 1012.2 |
| 20260508144802 | 57 | 200 | 1.0 | 7.0 | 0.00 | 0.00 | 0.00 | 59 | 1012.2 |
| 20260508144703 | 57 | 200 | 3.0 | 7.0 | 0.00 | 0.00 | 0.00 | 59 | 1012.3 |
| 20260508144601 | 57 | 200 | 2.0 | 7.0 | 0.00 | 0.00 | 0.00 | 61 | 1012.4 |
| 20260508144505 | 57 | 200 | 3.0 | 7.0 | 0.00 | 0.00 | 0.00 | 62 | 1012.4 |
| 20260508144401 | 57 | 200 | 3.0 | 7.0 | 0.00 | 0.00 | 0.00 | 60 | 1012.4 |
| 20260508144303 | 57 | 193 | 4.0 | 7.0 | 0.00 | 0.00 | 0.00 | 65 | 1012.4 |
| 20260508144203 | 57 | 163 | 2.0 | 7.0 | 0.00 | 0.00 | 0.00 | 63 | 1012.4 |
| 20260508143902 | 57 | 238 | 3.0 | 6.0 | 0.00 | 0.00 | 0.00 | 62 | 1012.4 |
| 20260508143802 | 56 | 248 | 3.0 | 6.0 | 0.00 | 0.00 | 0.00 | 62 | 1012.4 |
| 20260508143601 | 56 | 248 | 2.0 | 6.0 | 0.00 | 0.00 | 0.00 | 63 | 1012.4 |
| 20260508143401 | 56 | 245 | 3.0 | 6.0 | 0.00 | 0.00 | 0.00 | 62 | 1012.4 |
| 20260508143301 | 56 | 262 | 1.0 | 6.0 | 0.00 | 0.00 | 0.00 | 63 | 1012.4 |
| 20260508143200 | 56 | 261 | 2.0 | 6.0 | 0.00 | 0.00 | 0.00 | 62 | 1012.4 |
| 20260508143102 | 56 | 227 | 2.0 | 6.0 | 0.00 | 0.00 | 0.00 | 63 | 1012.4 |
| 20260508142903 | 56 | 225 | 1.0 | 7.0 | 0.00 | 0.00 | 0.00 | 66 | 1012.4 |
| 20260508142801 | 56 | 225 | 2.0 | 7.0 | 0.00 | 0.00 | 0.00 | 62 | 1012.4 |
| 20260508142602 | 56 | 169 | 1.0 | 7.0 | 0.00 | 0.00 | 0.00 | 64 | 1012.4 |
| 20260508142506 | 55 | 169 | 2.0 | 7.0 | 0.00 | 0.00 | 0.00 | 67 | 1012.4 |
| 20260508142301 | 55 | 169 | 0.0 | 7.0 | 0.00 | 0.00 | 0.00 | 67 | 1012.4 |
| 20260508142101 | 55 | 168 | 0.0 | 7.0 | 0.00 | 0.00 | 0.00 | 63 | 1012.4 |
| 20260508142005 | 55 | 151 | 3.0 | 7.0 | 0.00 | 0.00 | 0.00 | 67 | 1012.4 |
| 20260508141901 | 55 | 161 | 2.0 | 6.0 | 0.00 | 0.00 | 0.00 | 65 | 1012.4 |
| 20260508141801 | 55 | 161 | 2.0 | 6.0 | 0.00 | 0.00 | 0.00 | 67 | 1012.4 |
| 20260508141602 | 55 | 150 | 1.0 | 6.0 | 0.00 | 0.00 | 0.00 | 67 | 1012.4 |
| 20260508141505 | 54 | 150 | 2.0 | 6.0 | 0.00 | 0.00 | 0.00 | 67 | 1012.4 |
| 20260508141402 | 54 | 157 | 6.0 | 6.0 | 0.00 | 0.00 | 0.00 | 70 | 1012.4 |
| 20260508141302 | 54 | 148 | 1.0 | 4.0 | 0.00 | 0.00 | 0.00 | 67 | 1012.5 |
| 20260508141201 | 54 | 148 | 3.0 | 4.0 | 0.00 | 0.00 | 0.00 | 71 | 1012.5 |
| 20260508141005 | 53 | 61 | 0.0 | 4.0 | 0.00 | 0.00 | 0.00 | 68 | 1012.5 |
| 20260508140901 | 53 | 61 | 2.0 | 4.0 | 0.00 | 0.00 | 0.00 | 71 | 1012.5 |
| 20260508140800 | 53 | 61 | 0.0 | 4.0 | 0.00 | 0.00 | 0.00 | 68 | 1012.5 |
| 20260508140700 | 53 | 271 | 3.0 | 4.0 | 0.00 | 0.00 | 0.00 | 67 | 1012.5 |
| 20260508140600 | 53 | 275 | 2.0 | 4.0 | 0.00 | 0.00 | 0.00 | 66 | 1012.6 |
| 20260508140505 | 53 | 275 | 2.0 | 8.0 | 0.00 | 0.00 | 0.00 | 65 | 1012.5 |
| 20260508140400 | 53 | 275 | 3.0 | 8.0 | 0.00 | 0.00 | 0.00 | 65 | 1012.6 |
| 20260508140302 | 53 | 274 | 1.0 | 8.0 | 0.00 | 0.00 | 0.00 | 64 | 1012.6 |
| 20260508140202 | 53 | 275 | 1.0 | 8.0 | 0.00 | 0.00 | 0.00 | 66 | 1012.6 |
| 20260508140005 | 53 | 274 | 2.0 | 8.0 | 0.00 | 0.00 | 0.00 | 65 | 1012.6 |
| 20260508135859 | 53 | 275 | 4.0 | 8.0 | 0.00 | 0.00 | 0.00 | 67 | 1012.7 |
| 20260508135800 | 53 | 157 | 1.0 | 8.0 | 0.00 | 0.00 | 0.00 | 67 | 1012.6 |
| 20260508135659 | 53 | 157 | 3.0 | 8.0 | 0.00 | 0.00 | 0.00 | 67 | 1012.7 |
| 20260508135600 | 52 | 156 | 2.0 | 8.0 | 0.00 | 0.00 | 0.00 | 67 | 1012.7 |
| 20260508135505 | 52 | 138 | 7.0 | 7.0 | 0.00 | 0.00 | 0.00 | 70 | 1012.7 |
| 20260508135400 | 52 | 226 | 1.0 | 4.0 | 0.00 | 0.00 | 0.00 | 68 | 1012.7 |
| 20260508135301 | 52 | 226 | 2.0 | 4.0 | 0.00 | 0.00 | 0.00 | 70 | 1012.7 |
| 20260508135159 | 52 | 226 | 1.0 | 4.0 | 0.00 | 0.00 | 0.00 | 67 | 1012.7 |
| 20260508135100 | 52 | 226 | 1.0 | 4.0 | 0.00 | 0.00 | 0.00 | 69 | 1012.7 |
| 20260508135005 | 51 | 226 | 2.0 | 4.0 | 0.00 | 0.00 | 0.00 | 71 | 1012.7 |
| 20260508134900 | 51 | 146 | 0.0 | 4.0 | 0.00 | 0.00 | 0.00 | 72 | 1012.8 |
| 20260508134801 | 51 | 146 | 1.0 | 4.0 | 0.00 | 0.00 | 0.00 | 70 | 1012.8 |
| 20260508134659 | 51 | 146 | 1.0 | 4.0 | 0.00 | 0.00 | 0.00 | 67 | 1012.7 |
| 20260508134600 | 51 | 145 | 3.0 | 4.0 | 0.00 | 0.00 | 0.00 | 69 | 1012.8 |
| 20260508134505 | 51 | 148 | 0.0 | 4.0 | 0.00 | 0.00 | 0.00 | 68 | 1012.7 |
| 20260508134400 | 51 | 148 | 2.0 | 4.0 | 0.00 | 0.00 | 0.00 | 68 | 1012.7 |
| 20260508134259 | 51 | 192 | 3.0 | 3.0 | 0.00 | 0.00 | 0.00 | 70 | 1012.8 |
| 20260508134200 | 51 | 227 | 0.0 | 3.0 | 0.00 | 0.00 | 0.00 | 69 | 1012.8 |
| 20260508134102 | 51 | 227 | 0.0 | 3.0 | 0.00 | 0.00 | 0.00 | 68 | 1012.8 |
| 20260508134005 | 51 | 227 | 1.0 | 3.0 | 0.00 | 0.00 | 0.00 | 68 | 1012.8 |
| 20260508133901 | 51 | 227 | 0.0 | 3.0 | 0.00 | 0.00 | 0.00 | 68 | 1012.9 |
| 20260508133700 | 51 | 227 | 1.0 | 3.0 | 0.00 | 0.00 | 0.00 | 69 | 1013.0 |
| 20260508133505 | 50 | 225 | 0.0 | 3.0 | 0.00 | 0.00 | 0.00 | 71 | 1013.0 |
| 20260508133400 | 50 | 226 | 2.0 | 3.0 | 0.00 | 0.00 | 0.00 | 71 | 1013.0 |
| 20260508133300 | 50 | 226 | 1.0 | 3.0 | 0.00 | 0.00 | 0.00 | 72 | 1013.0 |
| 20260508133059 | 50 | 232 | 1.0 | 3.0 | 0.00 | 0.00 | 0.00 | 73 | 1013.0 |
| 20260508133004 | 50 | 232 | 0.0 | 3.0 | 0.00 | 0.00 | 0.00 | 72 | 1013.0 |
| 20260508132900 | 50 | 232 | 1.0 | 3.0 | 0.00 | 0.00 | 0.00 | 72 | 1013.0 |
| 20260508132700 | 50 | 232 | 1.0 | 3.0 | 0.00 | 0.00 | 0.00 | 73 | 1013.0 |
| 20260508132559 | 50 | 240 | 2.0 | 3.0 | 0.00 | 0.00 | 0.00 | 72 | 1013.0 |
| 20260508132505 | 50 | 240 | 1.0 | 3.0 | 0.00 | 0.00 | 0.00 | 71 | 1013.0 |
| 20260508132359 | 50 | 240 | 0.0 | 3.0 | 0.00 | 0.00 | 0.00 | 71 | 1013.1 |
| 20260508132201 | 50 | 240 | 2.0 | 4.0 | 0.00 | 0.00 | 0.00 | 71 | 1013.1 |
| 20260508132059 | 49 | 240 | 3.0 | 4.0 | 0.00 | 0.00 | 0.00 | 74 | 1013.1 |
| 20260508132005 | 49 | 182 | 0.0 | 4.0 | 0.00 | 0.00 | 0.00 | 73 | 1013.1 |
| 20260508131900 | 49 | 182 | 0.0 | 4.0 | 0.00 | 0.00 | 0.00 | 73 | 1013.1 |
| 20260508131800 | 49 | 182 | 1.0 | 4.0 | 0.00 | 0.00 | 0.00 | 74 | 1013.1 |
| 20260508131700 | 49 | 182 | 0.0 | 4.0 | 0.00 | 0.00 | 0.00 | 74 | 1013.1 |
| 20260508131505 | 49 | 182 | 1.0 | 4.0 | 0.00 | 0.00 | 0.00 | 74 | 1013.1 |
| 20260508131401 | 49 | 182 | 2.0 | 4.0 | 0.00 | 0.00 | 0.00 | 75 | 1013.1 |
| 20260508131301 | 49 | 195 | 0.0 | 0.0 | 0.00 | 0.00 | 0.00 | 76 | 1013.1 |
| 20260508131200 | 49 | 195 | 0.0 | 0.0 | 0.00 | 0.00 | 0.00 | 76 | 1013.1 |
| 20260508131100 | 49 | 195 | 0.0 | 0.0 | 0.00 | 0.00 | 0.00 | 76 | 1013.1 |
| 20260508131004 | 49 | 195 | 0.0 | 0.0 | 0.00 | 0.00 | 0.00 | 75 | 1013.0 |
| 20260508130900 | 49 | 195 | 0.0 | 0.0 | 0.00 | 0.00 | 0.00 | 76 | 1013.1 |
| 20260508130800 | 49 | 195 | 0.0 | 0.0 | 0.00 | 0.00 | 0.00 | 76 | 1013.1 |
| 20260508130701 | 49 | 195 | 0.0 | 1.0 | 0.00 | 0.00 | 0.00 | 75 | 1013.1 |
| 20260508130600 | 49 | 195 | 0.0 | 3.0 | 0.00 | 0.00 | 0.00 | 73 | 1013.1 |
| 20260508130504 | 49 | 195 | 0.0 | 3.0 | 0.00 | 0.00 | 0.00 | 74 | 1013.2 |
| 20260508130359 | 49 | 195 | 0.0 | 3.0 | 0.00 | 0.00 | 0.00 | 74 | 1013.2 |
| 20260508130200 | 49 | 195 | 0.0 | 3.0 | 0.00 | 0.00 | 0.00 | 73 | 1013.1 |
| 20260508130100 | 49 | 195 | 0.0 | 3.0 | 0.00 | 0.00 | 0.00 | 75 | 1013.1 |
| 20260508125900 | 49 | 195 | 0.0 | 3.0 | 0.00 | 0.00 | 0.00 | 75 | 1013.1 |
| 20260508125801 | 49 | 195 | 0.0 | 3.0 | 0.00 | 0.00 | 0.00 | 75 | 1013.1 |
| 20260508125700 | 49 | 195 | 2.0 | 3.0 | 0.00 | 0.00 | 0.00 | 75 | 1013.1 |
| 20260508125506 | 49 | 195 | 0.0 | 3.0 | 0.00 | 0.00 | 0.00 | 73 | 1013.1 |
| 20260508125305 | 48 | 195 | 1.0 | 3.0 | 0.00 | 0.00 | 0.00 | 75 | 1013.1 |
| 20260508125201 | 48 | 195 | 0.0 | 3.0 | 0.00 | 0.00 | 0.00 | 74 | 1013.1 |
| 20260508125101 | 48 | 195 | 0.0 | 3.0 | 0.00 | 0.00 | 0.00 | 76 | 1013.1 |
| 20260508125005 | 48 | 195 | 0.0 | 3.0 | 0.00 | 0.00 | 0.00 | 78 | 1013.1 |
| 20260508124800 | 48 | 195 | 2.0 | 3.0 | 0.00 | 0.00 | 0.00 | 78 | 1013.0 |
| 20260508124701 | 48 | 196 | 2.0 | 3.0 | 0.00 | 0.00 | 0.00 | 79 | 1013.1 |
| 20260508124602 | 49 | 272 | 0.0 | 2.0 | 0.00 | 0.00 | 0.00 | 78 | 1013.1 |
| 20260508124403 | 49 | 272 | 1.0 | 2.0 | 0.00 | 0.00 | 0.00 | 79 | 1013.1 |
| 20260508124302 | 49 | 272 | 0.0 | 2.0 | 0.00 | 0.00 | 0.00 | 78 | 1013.1 |
| 20260508124200 | 49 | 272 | 0.0 | 2.0 | 0.00 | 0.00 | 0.00 | 77 | 1013.1 |
| 20260508124101 | 49 | 272 | 0.0 | 2.0 | 0.00 | 0.00 | 0.00 | 77 | 1013.1 |
| 20260508124004 | 49 | 272 | 0.0 | 2.0 | 0.00 | 0.00 | 0.00 | 78 | 1013.1 |
| 20260508123601 | 49 | 192 | 0.0 | 0.0 | 0.00 | 0.00 | 0.00 | 77 | 1013.1 |
| 20260508123504 | 49 | 192 | 0.0 | 0.0 | 0.00 | 0.00 | 0.00 | 77 | 1013.1 |
| 20260508123402 | 49 | 192 | 0.0 | 0.0 | 0.00 | 0.00 | 0.00 | 77 | 1013.1 |
| 20260508123302 | 49 | 192 | 0.0 | 0.0 | 0.00 | 0.00 | 0.00 | 77 | 1013.0 |
| 20260508123200 | 49 | 192 | 0.0 | 0.0 | 0.00 | 0.00 | 0.00 | 76 | 1013.1 |
| 20260508123101 | 49 | 192 | 0.0 | 1.0 | 0.00 | 0.00 | 0.00 | 77 | 1013.1 |
| 20260508123007 | 49 | 192 | 0.0 | 2.0 | 0.00 | 0.00 | 0.00 | 77 | 1013.1 |
| 20260508122901 | 49 | 192 | 0.0 | 2.0 | 0.00 | 0.00 | 0.00 | 77 | 1013.1 |
| 20260508122802 | 49 | 192 | 0.0 | 2.0 | 0.00 | 0.00 | 0.00 | 77 | 1013.0 |
| 20260508122601 | 49 | 192 | 0.0 | 2.0 | 0.00 | 0.00 | 0.00 | 76 | 1013.1 |
| 20260508122504 | 49 | 192 | 0.0 | 2.0 | 0.00 | 0.00 | 0.00 | 76 | 1013.0 |
| 20260508122402 | 49 | 192 | 0.0 | 2.0 | 0.00 | 0.00 | 0.00 | 77 | 1013.1 |
| 20260508122301 | 49 | 192 | 0.0 | 2.0 | 0.00 | 0.00 | 0.00 | 77 | 1013.0 |
| 20260508122202 | 49 | 192 | 0.0 | 2.0 | 0.00 | 0.00 | 0.00 | 77 | 1013.0 |
| 20260508122101 | 49 | 192 | 1.0 | 2.0 | 0.00 | 0.00 | 0.00 | 78 | 1013.0 |
| 20260508122005 | 48 | 192 | 0.0 | 3.0 | 0.00 | 0.00 | 0.00 | 82 | 1013.0 |
| 20260508121859 | 48 | 192 | 0.0 | 4.0 | 0.00 | 0.00 | 0.00 | 83 | 1013.0 |
| 20260508121800 | 48 | 192 | 0.0 | 4.0 | 0.00 | 0.00 | 0.00 | 82 | 1013.0 |
| 20260508121601 | 48 | 192 | 0.0 | 4.0 | 0.00 | 0.00 | 0.00 | 82 | 1013.0 |
| 20260508121505 | 47 | 192 | 1.0 | 4.0 | 0.00 | 0.00 | 0.00 | 82 | 1013.0 |
| 20260508121401 | 47 | 192 | 0.0 | 4.0 | 0.00 | 0.00 | 0.00 | 82 | 1013.0 |
| 20260508121301 | 47 | 192 | 0.0 | 4.0 | 0.00 | 0.00 | 0.00 | 81 | 1013.0 |
| 20260508121101 | 47 | 192 | 3.0 | 4.0 | 0.00 | 0.00 | 0.00 | 81 | 1013.0 |
| 20260508121005 | 47 | 192 | 3.0 | 4.0 | 0.00 | 0.00 | 0.00 | 83 | 1012.9 |
| 20260508120903 | 47 | 59 | 1.0 | 2.0 | 0.00 | 0.00 | 0.00 | 84 | 1013.0 |
| 20260508120803 | 47 | 59 | 0.0 | 2.0 | 0.00 | 0.00 | 0.00 | 85 | 1012.9 |
| 20260508120701 | 46 | 59 | 1.0 | 2.0 | 0.00 | 0.00 | 0.00 | 84 | 1012.9 |
| 20260508120600 | 46 | 59 | 1.0 | 2.0 | 0.00 | 0.00 | 0.00 | 85 | 1012.9 |
| 20260508120505 | 46 | 59 | 0.0 | 0.0 | 0.00 | 0.00 | 0.00 | 84 | 1012.9 |
| 20260508120401 | 46 | 59 | 0.0 | 0.0 | 0.00 | 0.00 | 0.00 | 85 | 1012.7 |
| 20260508120301 | 46 | 59 | 0.0 | 0.0 | 0.00 | 0.00 | 0.00 | 85 | 1012.7 |
| 20260508120201 | 46 | 59 | 0.0 | 0.0 | 0.00 | 0.00 | 0.00 | 86 | 1012.7 |
| 20260508120005 | 46 | 59 | 0.0 | 0.0 | 0.00 | 0.00 | 0.00 | 88 | 1012.7 |
| 20260508115901 | 46 | 59 | 0.0 | 0.0 | 0.00 | 0.00 | 0.00 | 87 | 1012.7 |
| 20260508115759 | 45 | 59 | 0.0 | 0.0 | 0.00 | 0.00 | 0.00 | 87 | 1012.7 |
| 20260508115700 | 45 | 59 | 0.0 | 0.0 | 0.00 | 0.00 | 0.00 | 87 | 1012.7 |
| 20260508115600 | 45 | 59 | 0.0 | 0.0 | 0.00 | 0.00 | 0.00 | 88 | 1012.7 |
| 20260508115504 | 45 | 59 | 0.0 | 0.0 | 0.00 | 0.00 | 0.00 | 89 | 1012.7 |
| 20260508115359 | 45 | 59 | 0.0 | 0.0 | 0.00 | 0.00 | 0.00 | 90 | 1012.7 |
| 20260508115301 | 45 | 59 | 0.0 | 0.0 | 0.00 | 0.00 | 0.00 | 90 | 1012.7 |
| 20260508115200 | 45 | 59 | 0.0 | 0.0 | 0.00 | 0.00 | 0.00 | 91 | 1012.7 |
| 20260508115059 | 45 | 59 | 0.0 | 0.0 | 0.00 | 0.00 | 0.00 | 92 | 1012.7 |
| 20260508115004 | 45 | 59 | 0.0 | 0.0 | 0.00 | 0.00 | 0.00 | 93 | 1012.7 |
| 20260508114900 | 45 | 59 | 0.0 | 0.0 | 0.00 | 0.00 | 0.00 | 93 | 1012.7 |
| 20260508114800 | 45 | 59 | 0.0 | 0.0 | 0.00 | 0.00 | 0.00 | 93 | 1012.7 |
| 20260508114701 | 45 | 59 | 0.0 | 0.0 | 0.00 | 0.00 | 0.00 | 93 | 1012.7 |
| 20260508114601 | 45 | 59 | 0.0 | 0.0 | 0.00 | 0.00 | 0.00 | 93 | 1012.7 |
| 20260508114506 | 45 | 59 | 0.0 | 0.0 | 0.00 | 0.00 | 0.00 | 93 | 1012.8 |
| 20260508114359 | 45 | 59 | 0.0 | 0.0 | 0.00 | 0.00 | 0.00 | 93 | 1012.7 |
| 20260508114259 | 44 | 59 | 0.0 | 0.0 | 0.00 | 0.00 | 0.00 | 93 | 1012.7 |
| 20260508114200 | 44 | 59 | 0.0 | 0.0 | 0.00 | 0.00 | 0.00 | 93 | 1012.7 |
| 20260508114101 | 44 | 59 | 0.0 | 0.0 | 0.00 | 0.00 | 0.00 | 93 | 1012.7 |
| 20260508114006 | 44 | 59 | 0.0 | 0.0 | 0.00 | 0.00 | 0.00 | 94 | 1012.7 |
| 20260508113700 | 44 | 59 | 0.0 | 0.0 | 0.00 | 0.00 | 0.00 | 94 | 1012.6 |
| 20260508113601 | 44 | 59 | 0.0 | 0.0 | 0.00 | 0.00 | 0.00 | 94 | 1012.6 |
| 20260508113501 | 44 | 59 | 0.0 | 0.0 | 0.00 | 0.00 | 0.00 | 94 | 1012.6 |
| 20260508113400 | 43 | 59 | 0.0 | 0.0 | 0.00 | 0.00 | 0.00 | 94 | 1012.6 |
| 20260508113200 | 43 | 59 | 0.0 | 0.0 | 0.00 | 0.00 | 0.00 | 94 | 1012.6 |
| 20260508113101 | 43 | 59 | 0.0 | 0.0 | 0.00 | 0.00 | 0.00 | 94 | 1012.6 |
| 20260508113006 | 43 | 59 | 0.0 | 0.0 | 0.00 | 0.00 | 0.00 | 95 | 1012.6 |
| 20260508112800 | 43 | 59 | 0.0 | 0.0 | 0.00 | 0.00 | 0.00 | 95 | 1012.6 |
| 20260508112700 | 42 | 59 | 0.0 | 0.0 | 0.00 | 0.00 | 0.00 | 95 | 1012.6 |
| 20260508112559 | 42 | 59 | 0.0 | 0.0 | 0.00 | 0.00 | 0.00 | 95 | 1012.6 |
| 20260508112359 | 42 | 59 | 0.0 | 0.0 | 0.00 | 0.00 | 0.00 | 95 | 1012.6 |
| 20260508112301 | 42 | 59 | 0.0 | 0.0 | 0.00 | 0.00 | 0.00 | 95 | 1012.6 |
| 20260508112200 | 42 | 59 | 0.0 | 0.0 | 0.00 | 0.00 | 0.00 | 95 | 1012.6 |
| 20260508112059 | 41 | 59 | 0.0 | 0.0 | 0.00 | 0.00 | 0.00 | 95 | 1012.6 |
| 20260508111900 | 41 | 59 | 0.0 | 0.0 | 0.00 | 0.00 | 0.00 | 95 | 1012.7 |
| 20260508111800 | 41 | 59 | 0.0 | 0.0 | 0.00 | 0.00 | 0.00 | 95 | 1012.6 |
| 20260508111700 | 41 | 59 | 0.0 | 0.0 | 0.00 | 0.00 | 0.00 | 95 | 1012.6 |
| 20260508111600 | 41 | 59 | 0.0 | 0.0 | 0.00 | 0.00 | 0.00 | 95 | 1012.6 |
| 20260508111359 | 40 | 59 | 0.0 | 0.0 | 0.00 | 0.00 | 0.00 | 95 | 1012.6 |
| 20260508111301 | 40 | 59 | 0.0 | 0.0 | 0.00 | 0.00 | 0.00 | 95 | 1012.6 |
| 20260508111201 | 40 | 59 | 0.0 | 0.0 | 0.00 | 0.00 | 0.00 | 95 | 1012.6 |
| 20260508111101 | 40 | 59 | 0.0 | 0.0 | 0.00 | 0.00 | 0.00 | 95 | 1012.5 |
| 20260508110859 | 40 | 59 | 0.0 | 0.0 | 0.00 | 0.00 | 0.00 | 95 | 1012.5 |
| 20260508110659 | 40 | 59 | 0.0 | 0.0 | 0.00 | 0.00 | 0.00 | 95 | 1012.6 |
| 20260508110600 | 40 | 59 | 0.0 | 0.0 | 0.00 | 0.00 | 0.00 | 95 | 1012.6 |
| 20260508110400 | 40 | 59 | 0.0 | 0.0 | 0.00 | 0.00 | 0.00 | 95 | 1012.6 |
| 20260508110302 | 40 | 59 | 0.0 | 0.0 | 0.00 | 0.00 | 0.00 | 94 | 1012.5 |
| 20260508110201 | 40 | 59 | 0.0 | 0.0 | 0.00 | 0.00 | 0.00 | 94 | 1012.5 |
| 20260508110100 | 39 | 59 | 0.0 | 0.0 | 0.00 | 0.00 | 0.00 | 94 | 1012.5 |
| 20260508110007 | 39 | 59 | 0.0 | 0.0 | 0.00 | 0.00 | 0.00 | 94 | 1012.4 |
| 20260508105759 | 39 | 59 | 0.0 | 0.0 | 0.00 | 0.00 | 0.00 | 94 | 1012.3 |
| 20260508105700 | 39 | 59 | 0.0 | 0.0 | 0.00 | 0.00 | 0.00 | 95 | 1012.3 |
| 20260508105600 | 39 | 59 | 0.0 | 0.0 | 0.00 | 0.00 | 0.00 | 95 | 1012.2 |
| 20260508105506 | 39 | 59 | 0.0 | 0.0 | 0.00 | 0.00 | 0.00 | 95 | 1012.2 |
| 20260508105359 | 39 | 59 | 0.0 | 0.0 | 0.00 | 0.00 | 0.00 | 94 | 1012.2 |
| 20260508105059 | 39 | 59 | 0.0 | 0.0 | 0.00 | 0.00 | 0.00 | 94 | 1012.2 |
| 20260508105004 | 39 | 59 | 0.0 | 0.0 | 0.00 | 0.00 | 0.00 | 94 | 1012.2 |
| 20260508104902 | 39 | 59 | 0.0 | 0.0 | 0.00 | 0.00 | 0.00 | 94 | 1012.2 |
| 20260508104759 | 39 | 59 | 0.0 | 0.0 | 0.00 | 0.00 | 0.00 | 94 | 1012.2 |
| 20260508104700 | 39 | 59 | 0.0 | 0.0 | 0.00 | 0.00 | 0.00 | 94 | 1012.2 |
| 20260508104503 | 39 | 59 | 0.0 | 0.0 | 0.00 | 0.00 | 0.00 | 94 | 1012.2 |
| 20260508104400 | 38 | 59 | 0.0 | 0.0 | 0.00 | 0.00 | 0.00 | 94 | 1012.2 |
| 20260508104300 | 38 | 59 | 0.0 | 0.0 | 0.00 | 0.00 | 0.00 | 94 | 1012.2 |
| 20260508104100 | 38 | 59 | 0.0 | 0.0 | 0.00 | 0.00 | 0.00 | 94 | 1012.2 |
| 20260508104005 | 38 | 59 | 0.0 | 0.0 | 0.00 | 0.00 | 0.00 | 94 | 1012.3 |
| 20260508103859 | 38 | 59 | 0.0 | 0.0 | 0.00 | 0.00 | 0.00 | 94 | 1012.3 |
| 20260508103801 | 38 | 59 | 0.0 | 0.0 | 0.00 | 0.00 | 0.00 | 94 | 1012.3 |
| 20260508103659 | 38 | 59 | 0.0 | 0.0 | 0.00 | 0.00 | 0.00 | 94 | 1012.3 |
| 20260508103559 | 38 | 59 | 0.0 | 0.0 | 0.00 | 0.00 | 0.00 | 94 | 1012.3 |
| 20260508103503 | 38 | 59 | 0.0 | 0.0 | 0.00 | 0.00 | 0.00 | 94 | 1012.3 |
| 20260508103400 | 38 | 59 | 0.0 | 0.0 | 0.00 | 0.00 | 0.00 | 94 | 1012.3 |
| 20260508103301 | 38 | 59 | 0.0 | 0.0 | 0.00 | 0.00 | 0.00 | 94 | 1012.3 |
| 20260508103159 | 38 | 59 | 0.0 | 0.0 | 0.00 | 0.00 | 0.00 | 94 | 1012.2 |
| 20260508103100 | 38 | 59 | 0.0 | 0.0 | 0.00 | 0.00 | 0.00 | 94 | 1012.3 |
| 20260508103005 | 38 | 59 | 0.0 | 0.0 | 0.00 | 0.00 | 0.00 | 94 | 1012.2 |
| 20260508102901 | 38 | 59 | 0.0 | 0.0 | 0.00 | 0.00 | 0.00 | 94 | 1012.2 |
| 20260508102800 | 38 | 59 | 0.0 | 0.0 | 0.00 | 0.00 | 0.00 | 93 | 1012.2 |
| 20260508102700 | 38 | 59 | 0.0 | 0.0 | 0.00 | 0.00 | 0.00 | 93 | 1012.2 |
| 20260508102559 | 38 | 59 | 0.0 | 0.0 | 0.00 | 0.00 | 0.00 | 93 | 1012.2 |
| 20260508102505 | 38 | 59 | 0.0 | 0.0 | 0.00 | 0.00 | 0.00 | 93 | 1012.2 |
| 20260508102401 | 38 | 59 | 0.0 | 0.0 | 0.00 | 0.00 | 0.00 | 93 | 1012.1 |
| 20260508102301 | 38 | 59 | 0.0 | 0.0 | 0.00 | 0.00 | 0.00 | 93 | 1012.1 |
| 20260508102201 | 38 | 59 | 0.0 | 0.0 | 0.00 | 0.00 | 0.00 | 93 | 1012.1 |
| 20260508102005 | 38 | 59 | 0.0 | 0.0 | 0.00 | 0.00 | 0.00 | 93 | 1012.0 |
| 20260508101900 | 38 | 59 | 0.0 | 0.0 | 0.00 | 0.00 | 0.00 | 93 | 1012.0 |
| 20260508101800 | 38 | 59 | 0.0 | 0.0 | 0.00 | 0.00 | 0.00 | 93 | 1012.0 |
| 20260508101700 | 38 | 59 | 0.0 | 0.0 | 0.00 | 0.00 | 0.00 | 93 | 1012.0 |
| 20260508101600 | 38 | 59 | 0.0 | 0.0 | 0.00 | 0.00 | 0.00 | 93 | 1012.0 |
| 20260508101400 | 38 | 59 | 0.0 | 0.0 | 0.00 | 0.00 | 0.00 | 93 | 1012.0 |
| 20260508101259 | 38 | 59 | 0.0 | 0.0 | 0.00 | 0.00 | 0.00 | 93 | 1011.9 |
| 20260508101159 | 38 | 59 | 0.0 | 0.0 | 0.00 | 0.00 | 0.00 | 93 | 1011.9 |
| 20260508101059 | 38 | 59 | 0.0 | 0.0 | 0.00 | 0.00 | 0.00 | 93 | 1011.9 |
| 20260508101003 | 38 | 59 | 0.0 | 0.0 | 0.00 | 0.00 | 0.00 | 93 | 1011.9 |
| 20260508100800 | 38 | 59 | 0.0 | 0.0 | 0.00 | 0.00 | 0.00 | 93 | 1011.8 |
| 20260508100700 | 38 | 59 | 0.0 | 1.0 | 0.00 | 0.00 | 0.00 | 93 | 1011.8 |
| 20260508100601 | 38 | 59 | 0.0 | 1.0 | 0.00 | 0.00 | 0.00 | 93 | 1011.9 |
| 20260508100506 | 38 | 59 | 0.0 | 1.0 | 0.00 | 0.00 | 0.00 | 93 | 1011.9 |
| 20260508100400 | 38 | 59 | 0.0 | 1.0 | 0.00 | 0.00 | 0.00 | 92 | 1011.8 |
| 20260508100259 | 38 | 59 | 0.0 | 2.0 | 0.00 | 0.00 | 0.00 | 92 | 1011.7 |
| 20260508100159 | 38 | 59 | 0.0 | 2.0 | 0.00 | 0.00 | 0.00 | 92 | 1011.7 |
| 20260508100059 | 38 | 59 | 0.0 | 2.0 | 0.00 | 0.00 | 0.00 | 92 | 1011.7 |
| 20260508100006 | 38 | 59 | 0.0 | 2.0 | 0.00 | 0.00 | 0.00 | 92 | 1011.7 |
| 20260508095900 | 39 | 59 | 0.0 | 2.0 | 0.00 | 0.00 | 0.00 | 92 | 1011.7 |
| 20260508095759 | 38 | 59 | 0.0 | 2.0 | 0.00 | 0.00 | 0.00 | 92 | 1011.8 |
| 20260508095701 | 38 | 59 | 0.0 | 2.0 | 0.00 | 0.00 | 0.00 | 92 | 1011.8 |
| 20260508095601 | 39 | 59 | 0.0 | 2.0 | 0.00 | 0.00 | 0.00 | 92 | 1011.8 |
| 20260508095505 | 39 | 59 | 0.0 | 2.0 | 0.00 | 0.00 | 0.00 | 92 | 1011.8 |
| 20260508095300 | 39 | 59 | 0.0 | 2.0 | 0.00 | 0.00 | 0.00 | 92 | 1011.8 |
| 20260508095200 | 39 | 59 | 0.0 | 2.0 | 0.00 | 0.00 | 0.00 | 92 | 1011.8 |
| 20260508095100 | 39 | 59 | 0.0 | 2.0 | 0.00 | 0.00 | 0.00 | 92 | 1011.9 |
| 20260508095005 | 39 | 59 | 0.0 | 2.0 | 0.00 | 0.00 | 0.00 | 92 | 1011.9 |
| 20260508094900 | 39 | 59 | 1.0 | 2.0 | 0.00 | 0.00 | 0.00 | 92 | 1011.9 |
| 20260508094800 | 39 | 59 | 0.0 | 1.0 | 0.00 | 0.00 | 0.00 | 92 | 1011.9 |
| 20260508094601 | 39 | 59 | 0.0 | 1.0 | 0.00 | 0.00 | 0.00 | 92 | 1011.9 |
| 20260508094505 | 39 | 59 | 0.0 | 1.0 | 0.00 | 0.00 | 0.00 | 92 | 1011.9 |
| 20260508094300 | 39 | 59 | 0.0 | 1.0 | 0.00 | 0.00 | 0.00 | 91 | 1011.9 |
| 20260508094200 | 39 | 59 | 1.0 | 1.0 | 0.00 | 0.00 | 0.00 | 91 | 1011.9 |
| 20260508094004 | 39 | 59 | 0.0 | 1.0 | 0.00 | 0.00 | 0.00 | 91 | 1011.9 |
| 20260508093900 | 39 | 59 | 0.0 | 1.0 | 0.00 | 0.00 | 0.00 | 91 | 1011.9 |
| 20260508093800 | 39 | 59 | 0.0 | 1.0 | 0.00 | 0.00 | 0.00 | 91 | 1011.9 |
| 20260508093601 | 39 | 59 | 0.0 | 1.0 | 0.00 | 0.00 | 0.00 | 91 | 1011.9 |
| 20260508093504 | 39 | 59 | 0.0 | 1.0 | 0.00 | 0.00 | 0.00 | 90 | 1011.9 |
| 20260508093359 | 39 | 59 | 0.0 | 1.0 | 0.00 | 0.00 | 0.00 | 90 | 1011.9 |
| 20260508093300 | 39 | 59 | 1.0 | 1.0 | 0.00 | 0.00 | 0.00 | 90 | 1011.9 |
| 20260508093159 | 39 | 59 | 0.0 | 1.0 | 0.00 | 0.00 | 0.00 | 90 | 1011.9 |
| 20260508093101 | 39 | 59 | 0.0 | 1.0 | 0.00 | 0.00 | 0.00 | 90 | 1011.9 |
| 20260508093005 | 39 | 59 | 0.0 | 1.0 | 0.00 | 0.00 | 0.00 | 90 | 1011.9 |
| 20260508092901 | 39 | 59 | 0.0 | 1.0 | 0.00 | 0.00 | 0.00 | 90 | 1011.9 |
| 20260508092700 | 40 | 59 | 0.0 | 1.0 | 0.00 | 0.00 | 0.00 | 90 | 1011.9 |
| 20260508092601 | 40 | 59 | 1.0 | 1.0 | 0.00 | 0.00 | 0.00 | 90 | 1011.9 |
| 20260508092503 | 40 | 59 | 0.0 | 1.0 | 0.00 | 0.00 | 0.00 | 90 | 1011.9 |
| 20260508092359 | 40 | 59 | 0.0 | 1.0 | 0.00 | 0.00 | 0.00 | 90 | 1011.9 |
| 20260508092259 | 40 | 59 | 0.0 | 1.0 | 0.00 | 0.00 | 0.00 | 90 | 1012.0 |
| 20260508092203 | 40 | 59 | 0.0 | 1.0 | 0.00 | 0.00 | 0.00 | 90 | 1012.0 |
| 20260508092101 | 40 | 59 | 0.0 | 1.0 | 0.00 | 0.00 | 0.00 | 90 | 1012.0 |
| 20260508091800 | 40 | 59 | 0.0 | 0.0 | 0.00 | 0.00 | 0.00 | 90 | 1011.9 |
| 20260508091700 | 40 | 59 | 0.0 | 1.0 | 0.00 | 0.00 | 0.00 | 90 | 1011.9 |
| 20260508091504 | 40 | 59 | 0.0 | 1.0 | 0.00 | 0.00 | 0.00 | 89 | 1011.8 |
| 20260508091400 | 40 | 59 | 0.0 | 1.0 | 0.00 | 0.00 | 0.00 | 89 | 1011.9 |
| 20260508091300 | 40 | 59 | 0.0 | 1.0 | 0.00 | 0.00 | 0.00 | 89 | 1011.9 |
| 20260508091200 | 40 | 59 | 0.0 | 1.0 | 0.00 | 0.00 | 0.00 | 89 | 1011.8 |
| 20260508091101 | 40 | 59 | 0.0 | 1.0 | 0.00 | 0.00 | 0.00 | 89 | 1011.8 |
| 20260508091004 | 40 | 59 | 0.0 | 1.0 | 0.00 | 0.00 | 0.00 | 89 | 1011.8 |
| 20260508090900 | 40 | 59 | 0.0 | 2.0 | 0.00 | 0.00 | 0.00 | 89 | 1011.8 |
| 20260508090801 | 40 | 59 | 0.0 | 2.0 | 0.00 | 0.00 | 0.00 | 89 | 1011.7 |
| 20260508090659 | 40 | 59 | 0.0 | 2.0 | 0.00 | 0.00 | 0.00 | 89 | 1011.7 |
| 20260508090600 | 40 | 59 | 0.0 | 2.0 | 0.00 | 0.00 | 0.00 | 89 | 1011.7 |
| 20260508090501 | 40 | 59 | 0.0 | 2.0 | 0.00 | 0.00 | 0.00 | 88 | 1011.7 |
| 20260508090401 | 40 | 59 | 0.0 | 2.0 | 0.00 | 0.00 | 0.00 | 89 | 1011.7 |
| 20260508090301 | 41 | 59 | 0.0 | 2.0 | 0.00 | 0.00 | 0.00 | 88 | 1011.7 |
| 20260508090201 | 41 | 59 | 0.0 | 2.0 | 0.00 | 0.00 | 0.00 | 88 | 1011.7 |
| 20260508090100 | 41 | 59 | 1.0 | 2.0 | 0.00 | 0.00 | 0.00 | 88 | 1011.7 |
| 20260508090001 | 41 | 59 | 0.0 | 2.0 | 0.00 | 0.00 | 0.00 | 88 | 1011.7 |
| 20260508085900 | 41 | 59 | 0.0 | 1.0 | 0.00 | 0.00 | 0.00 | 88 | 1011.7 |
| 20260508085800 | 41 | 59 | 0.0 | 1.0 | 0.00 | 0.00 | 0.00 | 88 | 1011.8 |
| 20260508085600 | 41 | 59 | 0.0 | 1.0 | 0.00 | 0.00 | 0.00 | 88 | 1011.8 |
| 20260508085505 | 41 | 59 | 0.0 | 1.0 | 0.00 | 0.00 | 0.00 | 88 | 1011.8 |
| 20260508085401 | 41 | 59 | 0.0 | 1.0 | 0.00 | 0.00 | 0.00 | 88 | 1011.8 |
| 20260508085300 | 41 | 59 | 0.0 | 1.0 | 0.00 | 0.00 | 0.00 | 87 | 1011.7 |
| 20260508085201 | 41 | 59 | 0.0 | 1.0 | 0.00 | 0.00 | 0.00 | 87 | 1011.7 |
| 20260508085100 | 41 | 59 | 0.0 | 1.0 | 0.00 | 0.00 | 0.00 | 87 | 1011.7 |
| 20260508085004 | 41 | 59 | 0.0 | 1.0 | 0.00 | 0.00 | 0.00 | 87 | 1011.7 |
| 20260508084759 | 41 | 59 | 0.0 | 1.0 | 0.00 | 0.00 | 0.00 | 87 | 1011.7 |
| 20260508084701 | 41 | 59 | 0.0 | 1.0 | 0.00 | 0.00 | 0.00 | 87 | 1011.6 |
| 20260508084600 | 41 | 59 | 0.0 | 1.0 | 0.00 | 0.00 | 0.00 | 87 | 1011.7 |
| 20260508084505 | 41 | 59 | 0.0 | 2.0 | 0.00 | 0.00 | 0.00 | 87 | 1011.7 |
| 20260508084401 | 41 | 59 | 1.0 | 2.0 | 0.00 | 0.00 | 0.00 | 87 | 1011.7 |
| 20260508084300 | 42 | 59 | 0.0 | 2.0 | 0.00 | 0.00 | 0.00 | 87 | 1011.6 |
| 20260508084200 | 42 | 59 | 0.0 | 2.0 | 0.00 | 0.00 | 0.00 | 87 | 1011.7 |
| 20260508084100 | 42 | 59 | 1.0 | 2.0 | 0.00 | 0.00 | 0.00 | 87 | 1011.6 |
| 20260508084004 | 42 | 59 | 0.0 | 2.0 | 0.00 | 0.00 | 0.00 | 87 | 1011.6 |
| 20260508083905 | 42 | 59 | 0.0 | 2.0 | 0.00 | 0.00 | 0.00 | 86 | 1011.6 |
| 20260508083800 | 42 | 59 | 0.0 | 2.0 | 0.00 | 0.00 | 0.00 | 86 | 1011.6 |
| 20260508083702 | 42 | 59 | 0.0 | 2.0 | 0.00 | 0.00 | 0.00 | 86 | 1011.6 |
| 20260508083600 | 42 | 59 | 0.0 | 2.0 | 0.00 | 0.00 | 0.00 | 86 | 1011.5 |
| 20260508083504 | 42 | 59 | 0.0 | 1.0 | 0.00 | 0.00 | 0.00 | 86 | 1011.5 |
| 20260508083400 | 42 | 59 | 0.0 | 1.0 | 0.00 | 0.00 | 0.00 | 86 | 1011.5 |
| 20260508083300 | 42 | 59 | 0.0 | 2.0 | 0.00 | 0.00 | 0.00 | 85 | 1011.5 |
| 20260508083202 | 42 | 59 | 0.0 | 2.0 | 0.00 | 0.00 | 0.00 | 85 | 1011.5 |
| 20260508083005 | 42 | 59 | 0.0 | 2.0 | 0.00 | 0.00 | 0.00 | 85 | 1011.4 |
| 20260508082900 | 42 | 59 | 0.0 | 2.0 | 0.00 | 0.00 | 0.00 | 85 | 1011.4 |
| 20260508082801 | 43 | 59 | 0.0 | 2.0 | 0.00 | 0.00 | 0.00 | 85 | 1011.4 |
| 20260508082700 | 43 | 59 | 0.0 | 2.0 | 0.00 | 0.00 | 0.00 | 85 | 1011.4 |
| 20260508082559 | 43 | 59 | 0.0 | 2.0 | 0.00 | 0.00 | 0.00 | 85 | 1011.4 |
| 20260508082504 | 43 | 59 | 0.0 | 2.0 | 0.00 | 0.00 | 0.00 | 85 | 1011.4 |
| 20260508082400 | 43 | 59 | 1.0 | 2.0 | 0.00 | 0.00 | 0.00 | 84 | 1011.3 |
| 20260508082300 | 43 | 59 | 0.0 | 2.0 | 0.00 | 0.00 | 0.00 | 84 | 1011.4 |
| 20260508082100 | 43 | 59 | 0.0 | 2.0 | 0.00 | 0.00 | 0.00 | 84 | 1011.4 |
| 20260508081900 | 43 | 59 | 0.0 | 2.0 | 0.00 | 0.00 | 0.00 | 84 | 1011.4 |
| 20260508081800 | 43 | 59 | 0.0 | 2.0 | 0.00 | 0.00 | 0.00 | 84 | 1011.4 |
| 20260508081700 | 43 | 59 | 0.0 | 2.0 | 0.00 | 0.00 | 0.00 | 84 | 1011.4 |
| 20260508081505 | 43 | 59 | 0.0 | 2.0 | 0.00 | 0.00 | 0.00 | 83 | 1011.4 |
| 20260508081300 | 44 | 59 | 0.0 | 2.0 | 0.00 | 0.00 | 0.00 | 83 | 1011.5 |
| 20260508081200 | 44 | 59 | 0.0 | 2.0 | 0.00 | 0.00 | 0.00 | 83 | 1011.5 |
| 20260508081059 | 44 | 59 | 1.0 | 1.0 | 0.00 | 0.00 | 0.00 | 83 | 1011.5 |
| 20260508081004 | 44 | 59 | 0.0 | 0.0 | 0.00 | 0.00 | 0.00 | 83 | 1011.4 |
| 20260508080800 | 44 | 59 | 0.0 | 0.0 | 0.00 | 0.00 | 0.00 | 83 | 1011.4 |
| 20260508080700 | 44 | 59 | 0.0 | 0.0 | 0.00 | 0.00 | 0.00 | 83 | 1011.4 |
| 20260508080601 | 44 | 59 | 0.0 | 0.0 | 0.00 | 0.00 | 0.00 | 83 | 1011.4 |
| 20260508080504 | 44 | 59 | 0.0 | 0.0 | 0.00 | 0.00 | 0.00 | 83 | 1011.4 |
| 20260508080400 | 44 | 59 | 0.0 | 0.0 | 0.00 | 0.00 | 0.00 | 83 | 1011.4 |
| 20260508080204 | 44 | 59 | 0.0 | 0.0 | 0.00 | 0.00 | 0.00 | 83 | 1011.3 |
| 20260508080100 | 44 | 59 | 0.0 | 0.0 | 0.00 | 0.00 | 0.00 | 82 | 1011.3 |
| 20260508080005 | 44 | 59 | 0.0 | 0.0 | 0.00 | 0.00 | 0.00 | 82 | 1011.4 |
| 20260508075900 | 44 | 59 | 0.0 | 0.0 | 0.00 | 0.00 | 0.00 | 82 | 1011.4 |
| 20260508075801 | 44 | 59 | 0.0 | 0.0 | 0.00 | 0.00 | 0.00 | 82 | 1011.3 |
| 20260508075700 | 44 | 59 | 0.0 | 0.0 | 0.00 | 0.00 | 0.00 | 82 | 1011.3 |
| 20260508075559 | 44 | 59 | 0.0 | 0.0 | 0.00 | 0.00 | 0.00 | 82 | 1011.3 |
| 20260508075505 | 44 | 59 | 0.0 | 1.0 | 0.00 | 0.00 | 0.00 | 82 | 1011.3 |
| 20260508075359 | 45 | 59 | 0.0 | 2.0 | 0.00 | 0.00 | 0.00 | 82 | 1011.3 |
| 20260508075159 | 45 | 59 | 0.0 | 2.0 | 0.00 | 0.00 | 0.00 | 81 | 1011.3 |
| 20260508075100 | 45 | 59 | 0.0 | 2.0 | 0.00 | 0.00 | 0.00 | 81 | 1011.3 |
| 20260508075006 | 45 | 59 | 0.0 | 2.0 | 0.00 | 0.00 | 0.00 | 81 | 1011.3 |
| 20260508074900 | 45 | 59 | 0.0 | 2.0 | 0.00 | 0.00 | 0.00 | 81 | 1011.3 |
| 20260508074801 | 45 | 59 | 0.0 | 2.0 | 0.00 | 0.00 | 0.00 | 81 | 1011.3 |
| 20260508074700 | 45 | 59 | 0.0 | 2.0 | 0.00 | 0.00 | 0.00 | 81 | 1011.3 |
| 20260508074600 | 45 | 59 | 0.0 | 2.0 | 0.00 | 0.00 | 0.00 | 81 | 1011.3 |
| 20260508074504 | 45 | 59 | 2.0 | 2.0 | 0.00 | 0.00 | 0.00 | 81 | 1011.3 |
| 20260508074359 | 45 | 59 | 0.0 | 1.0 | 0.00 | 0.00 | 0.00 | 81 | 1011.3 |
| 20260508074300 | 45 | 59 | 0.0 | 1.0 | 0.00 | 0.00 | 0.00 | 81 | 1011.3 |
| 20260508074200 | 45 | 59 | 0.0 | 1.0 | 0.00 | 0.00 | 0.00 | 81 | 1011.3 |
| 20260508074101 | 45 | 59 | 0.0 | 1.0 | 0.00 | 0.00 | 0.00 | 81 | 1011.3 |
| 20260508074003 | 45 | 59 | 0.0 | 1.0 | 0.00 | 0.00 | 0.00 | 81 | 1011.3 |
| 20260508073759 | 45 | 59 | 1.0 | 1.0 | 0.00 | 0.00 | 0.00 | 81 | 1011.2 |
| 20260508073701 | 45 | 59 | 0.0 | 1.0 | 0.00 | 0.00 | 0.00 | 81 | 1011.3 |
| 20260508073601 | 45 | 59 | 1.0 | 1.0 | 0.00 | 0.00 | 0.00 | 81 | 1011.3 |
| 20260508073507 | 45 | 59 | 0.0 | 1.0 | 0.00 | 0.00 | 0.00 | 80 | 1011.3 |
| 20260508073359 | 45 | 59 | 0.0 | 1.0 | 0.00 | 0.00 | 0.00 | 80 | 1011.3 |
| 20260508073300 | 45 | 59 | 0.0 | 1.0 | 0.00 | 0.00 | 0.00 | 80 | 1011.2 |
| 20260508073159 | 45 | 59 | 0.0 | 2.0 | 0.00 | 0.00 | 0.00 | 80 | 1011.2 |
| 20260508073101 | 45 | 59 | 0.0 | 2.0 | 0.00 | 0.00 | 0.00 | 80 | 1011.2 |
| 20260508073006 | 45 | 59 | 1.0 | 2.0 | 0.00 | 0.00 | 0.00 | 80 | 1011.2 |
| 20260508072900 | 45 | 59 | 0.0 | 2.0 | 0.00 | 0.00 | 0.00 | 80 | 1011.2 |
| 20260508072800 | 45 | 59 | 0.0 | 2.0 | 0.00 | 0.00 | 0.00 | 80 | 1011.2 |
| 20260508072700 | 45 | 59 | 0.0 | 2.0 | 0.00 | 0.00 | 0.00 | 80 | 1011.2 |
| 20260508072601 | 45 | 59 | 0.0 | 2.0 | 0.00 | 0.00 | 0.00 | 80 | 1011.2 |
| 20260508072500 | 45 | 59 | 0.0 | 2.0 | 0.00 | 0.00 | 0.00 | 79 | 1011.2 |
| 20260508072400 | 45 | 59 | 0.0 | 2.0 | 0.00 | 0.00 | 0.00 | 79 | 1011.1 |
| 20260508072259 | 45 | 59 | 0.0 | 2.0 | 0.00 | 0.00 | 0.00 | 79 | 1011.1 |
| 20260508072201 | 45 | 59 | 1.0 | 2.0 | 0.00 | 0.00 | 0.00 | 79 | 1011.1 |
| 20260508072102 | 45 | 59 | 0.0 | 2.0 | 0.00 | 0.00 | 0.00 | 79 | 1011.1 |
| 20260508072004 | 45 | 59 | 0.0 | 2.0 | 0.00 | 0.00 | 0.00 | 79 | 1011.1 |
| 20260508071901 | 45 | 59 | 0.0 | 2.0 | 0.00 | 0.00 | 0.00 | 79 | 1011.1 |
| 20260508071700 | 46 | 59 | 1.0 | 2.0 | 0.00 | 0.00 | 0.00 | 79 | 1011.1 |
| 20260508071601 | 46 | 59 | 0.0 | 2.0 | 0.00 | 0.00 | 0.00 | 79 | 1011.2 |
| 20260508071504 | 46 | 59 | 0.0 | 2.0 | 0.00 | 0.00 | 0.00 | 79 | 1011.1 |
| 20260508071400 | 46 | 59 | 1.0 | 2.0 | 0.00 | 0.00 | 0.00 | 78 | 1011.1 |
| 20260508071300 | 46 | 59 | 1.0 | 2.0 | 0.00 | 0.00 | 0.00 | 78 | 1011.1 |
| 20260508071201 | 46 | 59 | 0.0 | 0.0 | 0.00 | 0.00 | 0.00 | 78 | 1011.1 |
| 20260508071000 | 46 | 59 | 0.0 | 0.0 | 0.00 | 0.00 | 0.00 | 78 | 1011.1 |
| 20260508070901 | 46 | 59 | 0.0 | 0.0 | 0.00 | 0.00 | 0.00 | 78 | 1011.1 |
| 20260508070801 | 46 | 59 | 0.0 | 0.0 | 0.00 | 0.00 | 0.00 | 77 | 1011.1 |
| 20260508070702 | 46 | 59 | 0.0 | 0.0 | 0.00 | 0.00 | 0.00 | 77 | 1011.2 |
| 20260508070600 | 46 | 59 | 0.0 | 0.0 | 0.00 | 0.00 | 0.00 | 77 | 1011.2 |
| 20260508070505 | 46 | 59 | 0.0 | 1.0 | 0.00 | 0.00 | 0.00 | 77 | 1011.2 |
| 20260508070359 | 47 | 59 | 0.0 | 1.0 | 0.00 | 0.00 | 0.00 | 77 | 1011.2 |
| 20260508070300 | 47 | 59 | 0.0 | 2.0 | 0.00 | 0.00 | 0.00 | 77 | 1011.2 |
| 20260508070159 | 47 | 59 | 0.0 | 2.0 | 0.00 | 0.00 | 0.00 | 77 | 1011.2 |
| 20260508070005 | 47 | 59 | 0.0 | 2.0 | 0.00 | 0.00 | 0.00 | 77 | 1011.1 |
| 20260508065902 | 47 | 59 | 0.0 | 2.0 | 0.00 | 0.00 | 0.00 | 77 | 1011.2 |
| 20260508065800 | 47 | 59 | 0.0 | 2.0 | 0.00 | 0.00 | 0.00 | 76 | 1011.2 |
| 20260508065700 | 47 | 59 | 0.0 | 2.0 | 0.00 | 0.00 | 0.00 | 76 | 1011.2 |
| 20260508065600 | 47 | 59 | 0.0 | 2.0 | 0.00 | 0.00 | 0.00 | 76 | 1011.2 |
| 20260508065300 | 48 | 59 | 0.0 | 6.0 | 0.00 | 0.00 | 0.00 | 75 | 1011.2 |
| 20260508065200 | 48 | 59 | 0.0 | 6.0 | 0.00 | 0.00 | 0.00 | 75 | 1011.1 |
| 20260508064900 | 48 | 59 | 0.0 | 6.0 | 0.00 | 0.00 | 0.00 | 74 | 1011.1 |
| 20260508064800 | 48 | 59 | 0.0 | 6.0 | 0.00 | 0.00 | 0.00 | 74 | 1011.1 |
| 20260508064701 | 48 | 59 | 0.0 | 6.0 | 0.00 | 0.00 | 0.00 | 74 | 1011.1 |
| 20260508064601 | 48 | 59 | 0.0 | 6.0 | 0.00 | 0.00 | 0.00 | 73 | 1011.1 |
| 20260508064401 | 48 | 59 | 2.0 | 6.0 | 0.00 | 0.00 | 0.00 | 73 | 1011.2 |
| 20260508064300 | 48 | 51 | 0.0 | 0.0 | 0.00 | 0.00 | 0.00 | 73 | 1011.1 |
| 20260508064101 | 48 | 51 | 0.0 | 0.0 | 0.00 | 0.00 | 0.00 | 72 | 1011.2 |
| 20260508063900 | 49 | 51 | 0.0 | 0.0 | 0.00 | 0.00 | 0.00 | 72 | 1011.2 |
| 20260508063759 | 49 | 51 | 0.0 | 1.0 | 0.00 | 0.00 | 0.00 | 72 | 1011.2 |
| 20260508063700 | 49 | 51 | 0.0 | 1.0 | 0.00 | 0.00 | 0.00 | 72 | 1011.3 |
| 20260508063600 | 49 | 51 | 0.0 | 1.0 | 0.00 | 0.00 | 0.00 | 71 | 1011.2 |
| 20260508063504 | 49 | 51 | 0.0 | 1.0 | 0.00 | 0.00 | 0.00 | 71 | 1011.2 |
| 20260508063400 | 49 | 51 | 0.0 | 1.0 | 0.00 | 0.00 | 0.00 | 71 | 1011.3 |
| 20260508063101 | 49 | 51 | 0.0 | 6.0 | 0.00 | 0.00 | 0.00 | 71 | 1011.2 |
| 20260508063004 | 50 | 51 | 0.0 | 6.0 | 0.00 | 0.00 | 0.00 | 71 | 1011.2 |
| 20260508062859 | 50 | 51 | 1.0 | 6.0 | 0.00 | 0.00 | 0.00 | 70 | 1011.2 |
| 20260508062700 | 50 | 51 | 0.0 | 6.0 | 0.00 | 0.00 | 0.00 | 70 | 1011.2 |
| 20260508062600 | 50 | 51 | 0.0 | 6.0 | 0.00 | 0.00 | 0.00 | 69 | 1011.2 |
| 20260508062504 | 50 | 51 | 0.0 | 6.0 | 0.00 | 0.00 | 0.00 | 70 | 1011.1 |
| 20260508062400 | 50 | 51 | 0.0 | 6.0 | 0.00 | 0.00 | 0.00 | 70 | 1011.1 |
| 20260508062300 | 50 | 51 | 1.0 | 6.0 | 0.00 | 0.00 | 0.00 | 70 | 1011.1 |
| 20260508062200 | 50 | 51 | 3.0 | 6.0 | 0.00 | 0.00 | 0.00 | 69 | 1011.1 |
| 20260508062100 | 50 | 22 | 3.0 | 4.0 | 0.00 | 0.00 | 0.00 | 69 | 1011.1 |
| 20260508061859 | 50 | 23 | 1.0 | 4.0 | 0.00 | 0.00 | 0.00 | 69 | 1011.1 |
| 20260508061701 | 50 | 20 | 2.0 | 4.0 | 0.00 | 0.00 | 0.00 | 69 | 1011.1 |
| 20260508061600 | 50 | 57 | 2.0 | 4.0 | 0.00 | 0.00 | 0.00 | 69 | 1011.0 |
| 20260508061505 | 50 | 57 | 0.0 | 4.0 | 0.00 | 0.00 | 0.00 | 69 | 1011.0 |
| 20260508061400 | 50 | 57 | 1.0 | 4.0 | 0.00 | 0.00 | 0.00 | 69 | 1011.0 |
| 20260508061202 | 50 | 88 | 0.0 | 3.0 | 0.00 | 0.00 | 0.00 | 69 | 1011.1 |
| 20260508061101 | 50 | 88 | 1.0 | 3.0 | 0.00 | 0.00 | 0.00 | 69 | 1011.0 |
| 20260508061005 | 50 | 88 | 0.0 | 4.0 | 0.00 | 0.00 | 0.00 | 69 | 1011.1 |
| 20260508060901 | 50 | 88 | 1.0 | 5.0 | 0.00 | 0.00 | 0.00 | 68 | 1011.0 |
| 20260508060505 | 50 | 17 | 3.0 | 5.0 | 0.00 | 0.00 | 0.00 | 69 | 1010.9 |
| 20260508060400 | 50 | 360 | 2.0 | 5.0 | 0.00 | 0.00 | 0.00 | 68 | 1010.9 |
| 20260508060300 | 50 | 360 | 0.0 | 5.0 | 0.00 | 0.00 | 0.00 | 68 | 1010.9 |
| 20260508060200 | 50 | 360 | 1.0 | 5.0 | 0.00 | 0.00 | 0.00 | 69 | 1010.9 |
| 20260508060005 | 51 | 15 | 5.0 | 5.0 | 0.00 | 0.00 | 0.00 | 69 | 1010.9 |
| 20260508055900 | 51 | 43 | 0.0 | 4.0 | 0.00 | 0.00 | 0.00 | 69 | 1010.9 |
| 20260508055800 | 51 | 43 | 0.0 | 4.0 | 0.00 | 0.00 | 0.00 | 69 | 1010.9 |
| 20260508055701 | 51 | 43 | 0.0 | 4.0 | 0.00 | 0.00 | 0.00 | 68 | 1010.8 |
| 20260508055559 | 51 | 43 | 0.0 | 4.0 | 0.00 | 0.00 | 0.00 | 68 | 1010.9 |
| 20260508055505 | 51 | 43 | 0.0 | 4.0 | 0.00 | 0.00 | 0.00 | 68 | 1010.9 |
| 20260508055300 | 51 | 43 | 1.0 | 4.0 | 0.00 | 0.00 | 0.00 | 68 | 1010.9 |
| 20260508055200 | 51 | 43 | 2.0 | 4.0 | 0.00 | 0.00 | 0.00 | 68 | 1010.9 |
| 20260508055004 | 51 | 49 | 0.0 | 6.0 | 0.00 | 0.00 | 0.00 | 68 | 1010.8 |
| 20260508054859 | 51 | 59 | 3.0 | 8.0 | 0.00 | 0.00 | 0.00 | 68 | 1010.8 |
| 20260508054801 | 51 | 105 | 2.0 | 8.0 | 0.00 | 0.00 | 0.00 | 68 | 1010.8 |
| 20260508054600 | 51 | 15 | 0.0 | 8.0 | 0.00 | 0.00 | 0.00 | 68 | 1010.8 |
| 20260508054504 | 51 | 15 | 0.0 | 8.0 | 0.00 | 0.00 | 0.00 | 68 | 1010.8 |
| 20260508054400 | 51 | 15 | 1.0 | 8.0 | 0.00 | 0.00 | 0.00 | 68 | 1010.8 |
| 20260508054201 | 51 | 15 | 1.0 | 8.0 | 0.00 | 0.00 | 0.00 | 68 | 1010.8 |
| 20260508054005 | 51 | 5 | 2.0 | 5.0 | 0.00 | 0.00 | 0.00 | 67 | 1010.8 |
| 20260508053800 | 51 | 5 | 3.0 | 5.0 | 0.00 | 0.00 | 0.00 | 67 | 1010.7 |
| 20260508053659 | 51 | 39 | 2.0 | 5.0 | 0.00 | 0.00 | 0.00 | 67 | 1010.8 |
| 20260508053601 | 51 | 24 | 1.0 | 5.0 | 0.00 | 0.00 | 0.00 | 67 | 1010.8 |
| 20260508053504 | 51 | 24 | 0.0 | 5.0 | 0.00 | 0.00 | 0.00 | 67 | 1010.9 |
| 20260508053359 | 52 | 24 | 2.0 | 5.0 | 0.00 | 0.00 | 0.00 | 66 | 1010.8 |
| 20260508053300 | 52 | 34 | 2.0 | 5.0 | 0.00 | 0.00 | 0.00 | 67 | 1010.8 |
| 20260508053200 | 52 | 5 | 3.0 | 5.0 | 0.00 | 0.00 | 0.00 | 66 | 1010.8 |
| 20260508053007 | 52 | 321 | 3.0 | 6.0 | 0.00 | 0.00 | 0.00 | 67 | 1010.8 |
| 20260508052900 | 52 | 46 | 2.0 | 6.0 | 0.00 | 0.00 | 0.00 | 67 | 1010.8 |
| 20260508052701 | 52 | 46 | 1.0 | 6.0 | 0.00 | 0.00 | 0.00 | 66 | 1010.8 |
| 20260508052600 | 52 | 46 | 3.0 | 6.0 | 0.00 | 0.00 | 0.00 | 66 | 1010.8 |
| 20260508052504 | 52 | 53 | 2.0 | 6.0 | 0.00 | 0.00 | 0.00 | 66 | 1010.8 |
| 20260508052400 | 52 | 287 | 2.0 | 6.0 | 0.00 | 0.00 | 0.00 | 67 | 1010.8 |
| 20260508052200 | 52 | 290 | 2.0 | 6.0 | 0.00 | 0.00 | 0.00 | 66 | 1010.8 |
| 20260508052004 | 52 | 19 | 5.0 | 6.0 | 0.00 | 0.00 | 0.00 | 66 | 1010.8 |
| 20260508051800 | 52 | 319 | 1.0 | 7.0 | 0.00 | 0.00 | 0.00 | 65 | 1010.8 |
| 20260508051701 | 52 | 319 | 4.0 | 7.0 | 0.00 | 0.00 | 0.00 | 65 | 1010.8 |
| 20260508051559 | 52 | 309 | 2.0 | 7.0 | 0.00 | 0.00 | 0.00 | 65 | 1010.8 |
| 20260508051500 | 52 | 309 | 5.0 | 7.0 | 0.00 | 0.00 | 0.00 | 65 | 1010.7 |
| 20260508051401 | 52 | 307 | 1.0 | 7.0 | 0.00 | 0.00 | 0.00 | 66 | 1010.8 |
| 20260508051300 | 52 | 308 | 2.0 | 9.0 | 0.00 | 0.00 | 0.00 | 65 | 1010.7 |
| 20260508051159 | 52 | 319 | 3.0 | 9.0 | 0.00 | 0.00 | 0.00 | 65 | 1010.7 |
| 20260508050801 | 52 | 326 | 2.0 | 9.0 | 0.00 | 0.00 | 0.00 | 64 | 1010.7 |
| 20260508050700 | 52 | 11 | 3.0 | 9.0 | 0.00 | 0.00 | 0.00 | 65 | 1010.6 |
| 20260508050600 | 52 | 348 | 2.0 | 9.0 | 0.00 | 0.00 | 0.00 | 65 | 1010.6 |
| 20260508050506 | 52 | 331 | 2.0 | 9.0 | 0.00 | 0.00 | 0.00 | 65 | 1010.6 |
| 20260508050400 | 53 | 331 | 1.0 | 9.0 | 0.00 | 0.00 | 0.00 | 65 | 1010.6 |
| 20260508050300 | 53 | 5 | 5.0 | 6.0 | 0.00 | 0.00 | 0.00 | 65 | 1010.6 |
| 20260508050201 | 53 | 350 | 2.0 | 6.0 | 0.00 | 0.00 | 0.00 | 64 | 1010.6 |
| 20260508050005 | 53 | 45 | 3.0 | 6.0 | 0.00 | 0.00 | 0.00 | 64 | 1010.5 |
| 20260508045901 | 53 | 10 | 5.0 | 6.0 | 0.00 | 0.00 | 0.00 | 64 | 1010.5 |
| 20260508045800 | 53 | 330 | 3.0 | 6.0 | 0.00 | 0.00 | 0.00 | 64 | 1010.4 |
| 20260508045601 | 53 | 321 | 2.0 | 5.0 | 0.00 | 0.00 | 0.00 | 64 | 1010.5 |
| 20260508045402 | 53 | 346 | 2.0 | 8.0 | 0.00 | 0.00 | 0.00 | 65 | 1010.5 |
| 20260508045259 | 53 | 346 | 1.0 | 8.0 | 0.00 | 0.00 | 0.00 | 64 | 1010.5 |
| 20260508045200 | 53 | 346 | 4.0 | 8.0 | 0.00 | 0.00 | 0.00 | 63 | 1010.5 |
| 20260508045100 | 53 | 324 | 3.0 | 8.0 | 0.00 | 0.00 | 0.00 | 63 | 1010.5 |
| 20260508044900 | 53 | 300 | 1.0 | 8.0 | 0.00 | 0.00 | 0.00 | 62 | 1010.4 |
| 20260508044800 | 53 | 300 | 2.0 | 9.0 | 0.00 | 0.00 | 0.00 | 62 | 1010.4 |
| 20260508044700 | 53 | 327 | 2.0 | 9.0 | 0.00 | 0.00 | 0.00 | 62 | 1010.4 |
| 20260508044600 | 53 | 350 | 4.0 | 9.0 | 0.00 | 0.00 | 0.00 | 63 | 1010.4 |
| 20260508044505 | 53 | 42 | 4.0 | 9.0 | 0.00 | 0.00 | 0.00 | 62 | 1010.4 |
| 20260508044400 | 53 | 20 | 2.0 | 9.0 | 0.00 | 0.00 | 0.00 | 62 | 1010.4 |
| 20260508044159 | 54 | 309 | 2.0 | 9.0 | 0.00 | 0.00 | 0.00 | 62 | 1010.3 |
| 20260508044101 | 54 | 288 | 4.0 | 9.0 | 0.00 | 0.00 | 0.00 | 64 | 1010.2 |
| 20260508044005 | 54 | 26 | 0.0 | 9.0 | 0.00 | 0.00 | 0.00 | 63 | 1010.3 |
| 20260508043901 | 54 | 15 | 9.0 | 9.0 | 0.00 | 0.00 | 0.00 | 63 | 1010.3 |
| 20260508043700 | 54 | 355 | 2.0 | 8.0 | 0.00 | 0.00 | 0.00 | 62 | 1010.2 |
| 20260508043504 | 54 | 261 | 2.0 | 8.0 | 0.00 | 0.00 | 0.00 | 63 | 1010.1 |
| 20260508043402 | 54 | 261 | 2.0 | 8.0 | 0.00 | 0.00 | 0.00 | 63 | 1010.1 |
| 20260508043005 | 54 | 313 | 4.0 | 8.0 | 0.00 | 0.00 | 0.00 | 61 | 1010.1 |
| 20260508042900 | 54 | 245 | 3.0 | 8.0 | 0.00 | 0.00 | 0.00 | 61 | 1010.1 |
| 20260508042506 | 54 | 355 | 4.0 | 10.0 | 0.00 | 0.00 | 0.00 | 61 | 1010.0 |
| 20260508042401 | 54 | 36 | 4.0 | 10.0 | 0.00 | 0.00 | 0.00 | 61 | 1010.0 |
| 20260508042300 | 54 | 38 | 3.0 | 11.0 | 0.00 | 0.00 | 0.00 | 61 | 1010.0 |
| 20260508042159 | 54 | 60 | 3.0 | 12.0 | 0.00 | 0.00 | 0.00 | 61 | 1009.9 |
| 20260508042058 | 54 | 26 | 3.0 | 12.0 | 0.00 | 0.00 | 0.00 | 61 | 1009.9 |
| 20260508042000 | 54 | 329 | 1.0 | 12.0 | 0.00 | 0.00 | 0.00 | 60 | 1009.9 |
| 20260508041700 | 54 | 333 | 4.0 | 12.0 | 0.00 | 0.00 | 0.00 | 60 | 1009.9 |
| 20260508041601 | 54 | 5 | 3.0 | 12.0 | 0.00 | 0.00 | 0.00 | 60 | 1009.9 |
| 20260508041505 | 54 | 11 | 4.0 | 12.0 | 0.00 | 0.00 | 0.00 | 60 | 1009.9 |
| 20260508041359 | 54 | 11 | 4.0 | 12.0 | 0.00 | 0.00 | 0.00 | 60 | 1009.9 |
| 20260508041300 | 54 | 28 | 3.0 | 10.0 | 0.00 | 0.00 | 0.00 | 60 | 1009.9 |
| 20260508041201 | 55 | 302 | 7.0 | 10.0 | 0.00 | 0.00 | 0.00 | 61 | 1009.8 |
| 20260508041100 | 55 | 360 | 4.0 | 14.0 | 0.00 | 0.00 | 0.00 | 61 | 1009.9 |
| 20260508041004 | 55 | 323 | 2.0 | 14.0 | 0.00 | 0.00 | 0.00 | 61 | 1009.9 |
| 20260508040901 | 55 | 326 | 4.0 | 14.0 | 0.00 | 0.00 | 0.00 | 62 | 1009.8 |
| 20260508040801 | 55 | 281 | 2.0 | 14.0 | 0.00 | 0.00 | 0.00 | 61 | 1009.7 |
| 20260508040702 | 55 | 5 | 1.0 | 14.0 | 0.00 | 0.00 | 0.00 | 61 | 1009.8 |
| 20260508040600 | 55 | 316 | 5.0 | 14.0 | 0.00 | 0.00 | 0.00 | 60 | 1009.7 |
| 20260508040505 | 55 | 355 | 5.0 | 14.0 | 0.00 | 0.00 | 0.00 | 61 | 1009.7 |
| 20260508040400 | 55 | 296 | 3.0 | 14.0 | 0.00 | 0.00 | 0.00 | 61 | 1009.7 |
| 20260508040301 | 55 | 325 | 2.0 | 14.0 | 0.00 | 0.00 | 0.00 | 60 | 1009.7 |
| 20260508040201 | 55 | 321 | 5.0 | 14.0 | 0.00 | 0.00 | 0.00 | 60 | 1009.8 |
| 20260508040101 | 55 | 278 | 2.0 | 9.0 | 0.00 | 0.00 | 0.00 | 60 | 1009.7 |
| 20260508040006 | 55 | 15 | 8.0 | 9.0 | 0.00 | 0.00 | 0.00 | 60 | 1009.6 |
| 20260508035901 | 55 | 5 | 3.0 | 9.0 | 0.00 | 0.00 | 0.00 | 60 | 1009.5 |
| 20260508035800 | 55 | 17 | 5.0 | 9.0 | 0.00 | 0.00 | 0.00 | 60 | 1009.5 |
| 20260508035701 | 55 | 329 | 1.0 | 9.0 | 0.00 | 0.00 | 0.00 | 60 | 1009.4 |
| 20260508035505 | 55 | 279 | 4.0 | 9.0 | 0.00 | 0.00 | 0.00 | 60 | 1009.5 |
| 20260508035400 | 55 | 279 | 2.0 | 9.0 | 0.00 | 0.00 | 0.00 | 60 | 1009.3 |
| 20260508035300 | 55 | 22 | 9.0 | 9.0 | 0.00 | 0.00 | 0.00 | 61 | 1009.3 |
| 20260508035200 | 55 | 336 | 3.0 | 4.0 | 0.00 | 0.00 | 0.00 | 60 | 1009.3 |
| 20260508035101 | 55 | 325 | 3.0 | 4.0 | 0.00 | 0.00 | 0.00 | 60 | 1009.2 |
| 20260508035005 | 55 | 264 | 2.0 | 4.0 | 0.00 | 0.00 | 0.00 | 61 | 1009.1 |
| 20260508034703 | 54 | 264 | 3.0 | 4.0 | 0.00 | 0.00 | 0.00 | 62 | 1009.0 |
| 20260508034601 | 54 | 288 | 1.0 | 3.0 | 0.00 | 0.00 | 0.00 | 62 | 1009.0 |
| 20260508034506 | 54 | 288 | 2.0 | 3.0 | 0.00 | 0.00 | 0.00 | 63 | 1009.0 |
| 20260508034402 | 54 | 288 | 1.0 | 4.0 | 0.00 | 0.00 | 0.00 | 63 | 1008.9 |
| 20260508034302 | 54 | 288 | 1.0 | 4.0 | 0.00 | 0.00 | 0.00 | 63 | 1008.9 |
| 20260508034201 | 54 | 288 | 1.0 | 4.0 | 0.00 | 0.00 | 0.00 | 64 | 1008.9 |
| 20260508034100 | 54 | 288 | 0.0 | 4.0 | 0.00 | 0.00 | 0.00 | 64 | 1008.9 |
| 20260508034005 | 54 | 288 | 0.0 | 4.0 | 0.00 | 0.00 | 0.00 | 63 | 1008.9 |
| 20260508033900 | 54 | 288 | 2.0 | 4.0 | 0.00 | 0.00 | 0.00 | 62 | 1008.9 |
| 20260508033801 | 54 | 291 | 0.0 | 4.0 | 0.00 | 0.00 | 0.00 | 62 | 1008.8 |
| 20260508033701 | 54 | 291 | 2.0 | 4.0 | 0.00 | 0.00 | 0.00 | 62 | 1008.8 |
| 20260508033600 | 54 | 291 | 0.0 | 4.0 | 0.00 | 0.00 | 0.00 | 62 | 1008.8 |
| 20260508033506 | 54 | 291 | 3.0 | 4.0 | 0.00 | 0.00 | 0.00 | 63 | 1008.8 |
| 20260508033401 | 54 | 248 | 1.0 | 4.0 | 0.00 | 0.00 | 0.00 | 65 | 1008.8 |
| 20260508033301 | 54 | 248 | 0.0 | 4.0 | 0.00 | 0.00 | 0.00 | 65 | 1008.8 |
| 20260508033201 | 54 | 248 | 3.0 | 4.0 | 0.00 | 0.00 | 0.00 | 64 | 1008.8 |
| 20260508033100 | 54 | 248 | 3.0 | 3.0 | 0.00 | 0.00 | 0.00 | 64 | 1008.7 |
| 20260508033005 | 54 | 248 | 0.0 | 1.0 | 0.00 | 0.00 | 0.00 | 63 | 1008.8 |
| 20260508032900 | 54 | 248 | 0.0 | 1.0 | 0.00 | 0.00 | 0.00 | 63 | 1008.7 |
| 20260508032801 | 54 | 248 | 0.0 | 1.0 | 0.00 | 0.00 | 0.00 | 62 | 1008.6 |
| 20260508032601 | 54 | 248 | 0.0 | 1.0 | 0.00 | 0.00 | 0.00 | 63 | 1008.6 |
| 20260508032504 | 54 | 248 | 0.0 | 1.0 | 0.00 | 0.00 | 0.00 | 63 | 1008.6 |
| 20260508032400 | 55 | 248 | 0.0 | 1.0 | 0.00 | 0.00 | 0.00 | 63 | 1008.6 |
| 20260508032300 | 55 | 248 | 0.0 | 1.0 | 0.00 | 0.00 | 0.00 | 63 | 1008.6 |
| 20260508032202 | 55 | 248 | 1.0 | 1.0 | 0.00 | 0.00 | 0.00 | 63 | 1008.6 |
| 20260508032101 | 55 | 248 | 0.0 | 1.0 | 0.00 | 0.00 | 0.00 | 63 | 1008.6 |
| 20260508032005 | 55 | 248 | 0.0 | 2.0 | 0.00 | 0.00 | 0.00 | 62 | 1008.6 |
| 20260508031901 | 55 | 248 | 1.0 | 2.0 | 0.00 | 0.00 | 0.00 | 62 | 1008.6 |
| 20260508031801 | 55 | 248 | 0.0 | 3.0 | 0.00 | 0.00 | 0.00 | 62 | 1008.6 |
| 20260508031700 | 55 | 248 | 0.0 | 3.0 | 0.00 | 0.00 | 0.00 | 62 | 1008.6 |
| 20260508031601 | 55 | 248 | 0.0 | 3.0 | 0.00 | 0.00 | 0.00 | 62 | 1008.6 |
| 20260508031507 | 55 | 248 | 0.0 | 3.0 | 0.00 | 0.00 | 0.00 | 61 | 1008.5 |
| 20260508031401 | 55 | 248 | 0.0 | 3.0 | 0.00 | 0.00 | 0.00 | 61 | 1008.5 |
| 20260508031302 | 55 | 248 | 0.0 | 3.0 | 0.00 | 0.00 | 0.00 | 61 | 1008.5 |
| 20260508031201 | 55 | 248 | 0.0 | 3.0 | 0.00 | 0.00 | 0.00 | 61 | 1008.5 |
| 20260508031004 | 55 | 248 | 1.0 | 3.0 | 0.00 | 0.00 | 0.00 | 61 | 1008.5 |
| 20260508030903 | 55 | 248 | 1.0 | 3.0 | 0.00 | 0.00 | 0.00 | 61 | 1008.5 |
| 20260508030801 | 56 | 248 | 1.0 | 3.0 | 0.00 | 0.00 | 0.00 | 61 | 1008.5 |
| 20260508030504 | 56 | 248 | 0.0 | 3.0 | 0.00 | 0.00 | 0.00 | 61 | 1008.5 |
| 20260508030402 | 56 | 248 | 1.0 | 3.0 | 0.00 | 0.00 | 0.00 | 60 | 1008.5 |
| 20260508030300 | 56 | 248 | 3.0 | 3.0 | 0.00 | 0.00 | 0.00 | 60 | 1008.5 |
| 20260508030201 | 56 | 248 | 0.0 | 2.0 | 0.00 | 0.00 | 0.00 | 60 | 1008.5 |
| 20260508030005 | 56 | 248 | 1.0 | 2.0 | 0.00 | 0.00 | 0.00 | 59 | 1008.4 |
| 20260508025902 | 56 | 248 | 0.0 | 2.0 | 0.00 | 0.00 | 0.00 | 59 | 1008.4 |
| 20260508025802 | 56 | 248 | 0.0 | 2.0 | 0.00 | 0.00 | 0.00 | 59 | 1008.4 |
| 20260508025702 | 56 | 248 | 2.0 | 2.0 | 0.00 | 0.00 | 0.00 | 60 | 1008.5 |
| 20260508025603 | 56 | 248 | 0.0 | 2.0 | 0.00 | 0.00 | 0.00 | 61 | 1008.4 |
| 20260508025505 | 56 | 248 | 0.0 | 2.0 | 0.00 | 0.00 | 0.00 | 61 | 1008.4 |
| 20260508025401 | 56 | 248 | 0.0 | 2.0 | 0.00 | 0.00 | 0.00 | 59 | 1008.4 |
| 20260508025305 | 56 | 248 | 0.0 | 2.0 | 0.00 | 0.00 | 0.00 | 59 | 1008.4 |
| 20260508025102 | 56 | 248 | 0.0 | 2.0 | 0.00 | 0.00 | 0.00 | 59 | 1008.4 |
| 20260508025005 | 56 | 248 | 0.0 | 2.0 | 0.00 | 0.00 | 0.00 | 60 | 1008.4 |
| 20260508024902 | 56 | 248 | 0.0 | 2.0 | 0.00 | 0.00 | 0.00 | 58 | 1008.4 |
| 20260508024701 | 56 | 248 | 1.0 | 3.0 | 0.00 | 0.00 | 0.00 | 60 | 1008.4 |
| 20260508024602 | 56 | 248 | 0.0 | 3.0 | 0.00 | 0.00 | 0.00 | 60 | 1008.4 |
| 20260508024505 | 57 | 248 | 1.0 | 3.0 | 0.00 | 0.00 | 0.00 | 58 | 1008.3 |
| 20260508024301 | 57 | 248 | 1.0 | 3.0 | 0.00 | 0.00 | 0.00 | 58 | 1008.4 |
| 20260508024102 | 57 | 248 | 0.0 | 3.0 | 0.00 | 0.00 | 0.00 | 57 | 1008.4 |
| 20260508023802 | 57 | 248 | 1.0 | 2.0 | 0.00 | 0.00 | 0.00 | 57 | 1008.3 |
| 20260508023703 | 57 | 248 | 0.0 | 0.0 | 0.00 | 0.00 | 0.00 | 58 | 1008.3 |
| 20260508023602 | 57 | 248 | 0.0 | 0.0 | 0.00 | 0.00 | 0.00 | 58 | 1008.3 |
| 20260508023506 | 57 | 248 | 0.0 | 0.0 | 0.00 | 0.00 | 0.00 | 57 | 1008.3 |
| 20260508023402 | 57 | 248 | 0.0 | 0.0 | 0.00 | 0.00 | 0.00 | 57 | 1008.3 |
| 20260508023301 | 57 | 248 | 0.0 | 1.0 | 0.00 | 0.00 | 0.00 | 56 | 1008.3 |
| 20260508023202 | 57 | 248 | 0.0 | 2.0 | 0.00 | 0.00 | 0.00 | 57 | 1008.3 |
| 20260508023102 | 57 | 248 | 0.0 | 3.0 | 0.00 | 0.00 | 0.00 | 57 | 1008.3 |
| 20260508023005 | 57 | 248 | 0.0 | 4.0 | 0.00 | 0.00 | 0.00 | 57 | 1008.3 |
| 20260508022902 | 57 | 248 | 0.0 | 4.0 | 0.00 | 0.00 | 0.00 | 57 | 1008.3 |
| 20260508022802 | 57 | 248 | 0.0 | 4.0 | 0.00 | 0.00 | 0.00 | 57 | 1008.3 |
| 20260508022702 | 57 | 248 | 0.0 | 5.0 | 0.00 | 0.00 | 0.00 | 57 | 1008.2 |
| 20260508022601 | 57 | 248 | 0.0 | 5.0 | 0.00 | 0.00 | 0.00 | 59 | 1008.2 |
| 20260508022505 | 57 | 248 | 0.0 | 5.0 | 0.00 | 0.00 | 0.00 | 58 | 1008.2 |
| 20260508022402 | 57 | 248 | 0.0 | 5.0 | 0.00 | 0.00 | 0.00 | 59 | 1008.3 |
| 20260508022306 | 57 | 248 | 1.0 | 5.0 | 0.00 | 0.00 | 0.00 | 59 | 1008.3 |
| 20260508022203 | 57 | 248 | 2.0 | 5.0 | 0.00 | 0.00 | 0.00 | 58 | 1008.2 |
| 20260508022102 | 57 | 248 | 2.0 | 5.0 | 0.00 | 0.00 | 0.00 | 57 | 1008.3 |
| 20260508022005 | 57 | 247 | 1.0 | 5.0 | 0.00 | 0.00 | 0.00 | 58 | 1008.2 |
| 20260508021802 | 57 | 242 | 4.0 | 5.0 | 0.00 | 0.00 | 0.00 | 59 | 1008.3 |
| 20260508021602 | 56 | 246 | 1.0 | 3.0 | 0.00 | 0.00 | 0.00 | 59 | 1008.2 |
| 20260508021401 | 56 | 246 | 1.0 | 3.0 | 0.00 | 0.00 | 0.00 | 57 | 1008.2 |
| 20260508021303 | 56 | 246 | 1.0 | 5.0 | 0.00 | 0.00 | 0.00 | 62 | 1008.2 |
| 20260508021203 | 56 | 246 | 0.0 | 5.0 | 0.00 | 0.00 | 0.00 | 61 | 1008.2 |
| 20260508021103 | 56 | 246 | 0.0 | 5.0 | 0.00 | 0.00 | 0.00 | 61 | 1008.2 |
| 20260508021004 | 56 | 246 | 2.0 | 5.0 | 0.00 | 0.00 | 0.00 | 60 | 1008.2 |
| 20260508020902 | 56 | 246 | 1.0 | 5.0 | 0.00 | 0.00 | 0.00 | 60 | 1008.2 |
| 20260508020801 | 56 | 246 | 1.0 | 5.0 | 0.00 | 0.00 | 0.00 | 61 | 1008.2 |
| 20260508020703 | 56 | 246 | 0.0 | 5.0 | 0.00 | 0.00 | 0.00 | 61 | 1008.2 |
| 20260508020602 | 56 | 246 | 1.0 | 5.0 | 0.00 | 0.00 | 0.00 | 60 | 1008.2 |
| 20260508020504 | 56 | 246 | 1.0 | 5.0 | 0.00 | 0.00 | 0.00 | 58 | 1008.1 |
| 20260508020203 | 56 | 251 | 1.0 | 4.0 | 0.00 | 0.00 | 0.00 | 62 | 1008.1 |
| 20260508020005 | 56 | 251 | 0.0 | 4.0 | 0.00 | 0.00 | 0.00 | 59 | 1008.0 |
| 20260508015900 | 56 | 251 | 1.0 | 4.0 | 0.00 | 0.00 | 0.00 | 58 | 1008.1 |
| 20260508015800 | 56 | 245 | 1.0 | 4.0 | 0.00 | 0.00 | 0.00 | 60 | 1008.0 |
| 20260508015700 | 56 | 245 | 1.0 | 4.0 | 0.00 | 0.00 | 0.00 | 59 | 1008.0 |
| 20260508015505 | 55 | 245 | 2.0 | 4.0 | 0.00 | 0.00 | 0.00 | 62 | 1008.0 |
| 20260508015301 | 55 | 245 | 1.0 | 4.0 | 0.00 | 0.00 | 0.00 | 61 | 1008.0 |
| 20260508015202 | 55 | 245 | 1.0 | 4.0 | 0.00 | 0.00 | 0.00 | 63 | 1008.0 |
| 20260508015005 | 55 | 245 | 0.0 | 4.0 | 0.00 | 0.00 | 0.00 | 59 | 1008.0 |
| 20260508014902 | 55 | 245 | 2.0 | 4.0 | 0.00 | 0.00 | 0.00 | 61 | 1008.0 |
| 20260508014801 | 55 | 258 | 1.0 | 3.0 | 0.00 | 0.00 | 0.00 | 61 | 1008.0 |
| 20260508014701 | 55 | 257 | 0.0 | 3.0 | 0.00 | 0.00 | 0.00 | 61 | 1007.9 |
| 20260508014601 | 55 | 258 | 0.0 | 3.0 | 0.00 | 0.00 | 0.00 | 62 | 1007.9 |
| 20260508014506 | 55 | 258 | 0.0 | 3.0 | 0.00 | 0.00 | 0.00 | 63 | 1008.0 |
| 20260508014400 | 55 | 257 | 0.0 | 3.0 | 0.00 | 0.00 | 0.00 | 62 | 1007.9 |
| 20260508014301 | 55 | 257 | 0.0 | 3.0 | 0.00 | 0.00 | 0.00 | 63 | 1007.9 |
| 20260508014101 | 55 | 257 | 2.0 | 3.0 | 0.00 | 0.00 | 0.00 | 61 | 1007.8 |
| 20260508014007 | 55 | 303 | 1.0 | 2.0 | 0.00 | 0.00 | 0.00 | 61 | 1007.9 |
| 20260508013901 | 55 | 303 | 1.0 | 2.0 | 0.00 | 0.00 | 0.00 | 61 | 1007.9 |
| 20260508013800 | 55 | 303 | 0.0 | 2.0 | 0.00 | 0.00 | 0.00 | 61 | 1007.8 |
| 20260508013601 | 56 | 303 | 1.0 | 2.0 | 0.00 | 0.00 | 0.00 | 59 | 1007.8 |
| 20260508013505 | 56 | 303 | 0.0 | 2.0 | 0.00 | 0.00 | 0.00 | 60 | 1007.8 |
| 20260508013359 | 56 | 303 | 0.0 | 2.0 | 0.00 | 0.00 | 0.00 | 60 | 1007.7 |
| 20260508013301 | 56 | 303 | 0.0 | 2.0 | 0.00 | 0.00 | 0.00 | 60 | 1007.7 |
| 20260508013202 | 56 | 303 | 2.0 | 2.0 | 0.00 | 0.00 | 0.00 | 59 | 1007.7 |
| 20260508013101 | 56 | 303 | 0.0 | 1.0 | 0.00 | 0.00 | 0.00 | 59 | 1007.7 |
| 20260508013006 | 56 | 303 | 0.0 | 1.0 | 0.00 | 0.00 | 0.00 | 58 | 1007.7 |
| 20260508012901 | 56 | 303 | 0.0 | 1.0 | 0.00 | 0.00 | 0.00 | 58 | 1007.7 |
| 20260508012801 | 56 | 303 | 0.0 | 1.0 | 0.00 | 0.00 | 0.00 | 58 | 1007.6 |
| 20260508012602 | 56 | 303 | 0.0 | 0.0 | 0.00 | 0.00 | 0.00 | 57 | 1007.6 |
| 20260508012505 | 56 | 303 | 0.0 | 0.0 | 0.00 | 0.00 | 0.00 | 57 | 1007.5 |
| 20260508012401 | 57 | 303 | 0.0 | 1.0 | 0.00 | 0.00 | 0.00 | 57 | 1007.5 |
| 20260508012306 | 57 | 303 | 0.0 | 2.0 | 0.00 | 0.00 | 0.00 | 57 | 1007.5 |
| 20260508012201 | 57 | 303 | 0.0 | 2.0 | 0.00 | 0.00 | 0.00 | 57 | 1007.5 |
| 20260508012101 | 57 | 303 | 0.0 | 2.0 | 0.00 | 0.00 | 0.00 | 56 | 1007.4 |
| 20260508012006 | 57 | 303 | 0.0 | 2.0 | 0.00 | 0.00 | 0.00 | 56 | 1007.4 |
| 20260508011902 | 57 | 303 | 0.0 | 2.0 | 0.00 | 0.00 | 0.00 | 57 | 1007.4 |
| 20260508011802 | 57 | 303 | 0.0 | 2.0 | 0.00 | 0.00 | 0.00 | 56 | 1007.4 |
| 20260508011701 | 57 | 303 | 0.0 | 2.0 | 0.00 | 0.00 | 0.00 | 57 | 1007.4 |
| 20260508011601 | 57 | 303 | 0.0 | 2.0 | 0.00 | 0.00 | 0.00 | 58 | 1007.4 |
| 20260508011506 | 57 | 303 | 0.0 | 2.0 | 0.00 | 0.00 | 0.00 | 58 | 1007.4 |
| 20260508011403 | 58 | 303 | 1.0 | 2.0 | 0.00 | 0.00 | 0.00 | 56 | 1007.4 |
| 20260508011301 | 58 | 303 | 0.0 | 3.0 | 0.00 | 0.00 | 0.00 | 55 | 1007.4 |
| 20260508011202 | 58 | 303 | 0.0 | 3.0 | 0.00 | 0.00 | 0.00 | 55 | 1007.4 |
| 20260508011102 | 58 | 303 | 0.0 | 3.0 | 0.00 | 0.00 | 0.00 | 54 | 1007.4 |
| 20260508010901 | 58 | 303 | 0.0 | 3.0 | 0.00 | 0.00 | 0.00 | 54 | 1007.4 |
| 20260508010802 | 58 | 303 | 0.0 | 3.0 | 0.00 | 0.00 | 0.00 | 54 | 1007.4 |
| 20260508010703 | 58 | 303 | 0.0 | 3.0 | 0.00 | 0.00 | 0.00 | 53 | 1007.4 |
| 20260508010602 | 58 | 303 | 0.0 | 3.0 | 0.00 | 0.00 | 0.00 | 53 | 1007.4 |
| 20260508010401 | 58 | 303 | 1.0 | 3.0 | 0.00 | 0.00 | 0.00 | 53 | 1007.4 |
| 20260508010302 | 58 | 303 | 2.0 | 3.0 | 0.00 | 0.00 | 0.00 | 53 | 1007.3 |
| 20260508010201 | 58 | 303 | 0.0 | 3.0 | 0.00 | 0.00 | 0.00 | 53 | 1007.3 |
| 20260508010101 | 59 | 303 | 0.0 | 3.0 | 0.00 | 0.00 | 0.00 | 53 | 1007.2 |
| 20260508010006 | 59 | 303 | 0.0 | 3.0 | 0.00 | 0.00 | 0.00 | 53 | 1007.3 |
| 20260508005904 | 59 | 303 | 0.0 | 3.0 | 0.00 | 0.00 | 0.00 | 52 | 1007.3 |
| 20260508005803 | 59 | 303 | 1.0 | 3.0 | 0.00 | 0.00 | 0.00 | 53 | 1007.3 |
| 20260508005602 | 59 | 303 | 1.0 | 3.0 | 0.00 | 0.00 | 0.00 | 52 | 1007.3 |
| 20260508005505 | 59 | 303 | 0.0 | 3.0 | 0.00 | 0.00 | 0.00 | 53 | 1007.2 |
| 20260508005401 | 59 | 303 | 3.0 | 3.0 | 0.00 | 0.00 | 0.00 | 52 | 1007.2 |
| 20260508005305 | 59 | 303 | 0.0 | 3.0 | 0.00 | 0.00 | 0.00 | 53 | 1007.2 |
| 20260508005102 | 59 | 303 | 0.0 | 3.0 | 0.00 | 0.00 | 0.00 | 52 | 1007.2 |
| 20260508004903 | 59 | 303 | 1.0 | 3.0 | 0.00 | 0.00 | 0.00 | 53 | 1007.2 |
| 20260508004804 | 59 | 303 | 0.0 | 3.0 | 0.00 | 0.00 | 0.00 | 53 | 1007.2 |
| 20260508004703 | 59 | 303 | 1.0 | 3.0 | 0.00 | 0.00 | 0.00 | 53 | 1007.2 |
| 20260508004603 | 59 | 303 | 1.0 | 3.0 | 0.00 | 0.00 | 0.00 | 51 | 1007.2 |
| 20260508004507 | 59 | 303 | 1.0 | 5.0 | 0.00 | 0.00 | 0.00 | 52 | 1007.1 |
| 20260508004401 | 59 | 303 | 2.0 | 5.0 | 0.00 | 0.00 | 0.00 | 53 | 1007.1 |
| 20260508004301 | 59 | 290 | 0.0 | 5.0 | 0.00 | 0.00 | 0.00 | 53 | 1007.1 |
| 20260508004203 | 59 | 290 | 0.0 | 5.0 | 0.00 | 0.00 | 0.00 | 53 | 1007.1 |
| 20260508004103 | 59 | 290 | 0.0 | 5.0 | 0.00 | 0.00 | 0.00 | 54 | 1007.1 |
| 20260508004005 | 59 | 290 | 0.0 | 5.0 | 0.00 | 0.00 | 0.00 | 53 | 1007.1 |
| 20260508003903 | 59 | 290 | 1.0 | 5.0 | 0.00 | 0.00 | 0.00 | 54 | 1007.0 |
| 20260508003802 | 59 | 290 | 1.0 | 5.0 | 0.00 | 0.00 | 0.00 | 52 | 1007.0 |
| 20260508003702 | 59 | 290 | 2.0 | 5.0 | 0.00 | 0.00 | 0.00 | 51 | 1007.0 |
| 20260508003506 | 59 | 306 | 5.0 | 5.0 | 0.00 | 0.00 | 0.00 | 52 | 1007.0 |
| 20260508003401 | 59 | 275 | 3.0 | 4.0 | 0.00 | 0.00 | 0.00 | 52 | 1007.0 |
| 20260508003303 | 59 | 263 | 2.0 | 3.0 | 0.00 | 0.00 | 0.00 | 52 | 1007.0 |
| 20260508003203 | 59 | 263 | 1.0 | 3.0 | 0.00 | 0.00 | 0.00 | 51 | 1006.9 |
| 20260508003102 | 59 | 263 | 2.0 | 3.0 | 0.00 | 0.00 | 0.00 | 51 | 1007.0 |
| 20260508003006 | 59 | 263 | 1.0 | 3.0 | 0.00 | 0.00 | 0.00 | 52 | 1007.0 |
| 20260508002803 | 59 | 263 | 1.0 | 3.0 | 0.00 | 0.00 | 0.00 | 52 | 1006.9 |
| 20260508002602 | 59 | 263 | 0.0 | 3.0 | 0.00 | 0.00 | 0.00 | 55 | 1006.9 |
| 20260508002506 | 59 | 263 | 0.0 | 3.0 | 0.00 | 0.00 | 0.00 | 52 | 1006.9 |
| 20260508002302 | 59 | 263 | 0.0 | 3.0 | 0.00 | 0.00 | 0.00 | 52 | 1006.9 |
| 20260508002102 | 59 | 263 | 1.0 | 3.0 | 0.00 | 0.00 | 0.00 | 53 | 1006.9 |
| 20260508001902 | 59 | 263 | 2.0 | 2.0 | 0.00 | 0.00 | 0.00 | 55 | 1007.0 |
| 20260508001704 | 59 | 263 | 0.0 | 2.0 | 0.00 | 0.00 | 0.00 | 54 | 1006.9 |
| 20260508001303 | 59 | 263 | 0.0 | 2.0 | 0.00 | 0.00 | 0.00 | 54 | 1006.9 |
| 20260508001201 | 59 | 263 | 0.0 | 2.0 | 0.00 | 0.00 | 0.00 | 53 | 1006.9 |
| 20260508001102 | 59 | 263 | 1.0 | 2.0 | 0.00 | 0.00 | 0.00 | 53 | 1006.9 |
| 20260508001006 | 59 | 263 | 1.0 | 2.0 | 0.00 | 0.00 | 0.00 | 52 | 1006.9 |
| 20260508000902 | 59 | 263 | 0.0 | 2.0 | 0.00 | 0.00 | 0.00 | 52 | 1006.9 |
| 20260508000802 | 59 | 263 | 1.0 | 2.0 | 0.00 | 0.00 | 0.00 | 51 | 1006.9 |
| 20260508000601 | 60 | 263 | 0.0 | 2.0 | 0.00 | 0.00 | 0.00 | 51 | 1007.0 |
| 20260508000505 | 60 | 263 | 1.0 | 2.0 | 0.00 | 0.00 | 0.00 | 51 | 1006.9 |
| 20260508000404 | 60 | 263 | 0.0 | 2.0 | 0.00 | 0.00 | 0.00 | 50 | 1006.9 |
| 20260508000302 | 60 | 263 | 1.0 | 4.0 | 0.00 | 0.00 | 0.00 | 51 | 1006.9 |
| 20260508000204 | 60 | 263 | 0.0 | 6.0 | 0.00 | 0.00 | 0.00 | 51 | 1006.9 |
| 20260508000005 | 60 | 263 | 0.0 | 6.0 | 0.00 | 0.00 | 0.00 | 51 | 1006.9 |
| 20260507235902 | 60 | 263 | 0.0 | 6.0 | 0.00 | 0.00 | 0.00 | 51 | 1006.9 |
| 20260507235800 | 60 | 263 | 1.0 | 6.0 | 0.00 | 0.00 | 0.00 | 49 | 1006.9 |
| 20260507235701 | 60 | 263 | 0.0 | 6.0 | 0.00 | 0.00 | 0.00 | 50 | 1006.9 |
| 20260507235601 | 60 | 263 | 1.0 | 6.0 | 0.00 | 0.00 | 0.00 | 50 | 1006.9 |
| 20260507235505 | 60 | 263 | 1.0 | 6.0 | 0.00 | 0.00 | 0.00 | 51 | 1006.8 |
| 20260507235401 | 60 | 263 | 2.0 | 6.0 | 0.00 | 0.00 | 0.00 | 50 | 1006.8 |
| 20260507235306 | 60 | 355 | 1.0 | 3.0 | 0.00 | 0.00 | 0.00 | 51 | 1006.8 |
| 20260507234901 | 61 | 355 | 1.0 | 6.0 | 0.00 | 0.00 | 0.00 | 49 | 1006.8 |
| 20260507234801 | 61 | 355 | 1.0 | 6.0 | 0.00 | 0.00 | 0.00 | 50 | 1006.8 |
| 20260507234700 | 61 | 355 | 2.0 | 6.0 | 0.00 | 0.00 | 0.00 | 49 | 1006.8 |
| 20260507234600 | 61 | 355 | 1.0 | 6.0 | 0.00 | 0.00 | 0.00 | 49 | 1006.8 |
| 20260507234504 | 61 | 355 | 2.0 | 6.0 | 0.00 | 0.00 | 0.00 | 50 | 1006.8 |
| 20260507234401 | 61 | 355 | 0.0 | 6.0 | 0.00 | 0.00 | 0.00 | 48 | 1006.8 |
| 20260507234303 | 61 | 355 | 1.0 | 6.0 | 0.00 | 0.00 | 0.00 | 48 | 1006.7 |
| 20260507234202 | 61 | 42 | 4.0 | 4.0 | 0.00 | 0.00 | 0.00 | 49 | 1006.7 |
| 20260507234100 | 61 | 5 | 2.0 | 3.0 | 0.00 | 0.00 | 0.00 | 49 | 1006.7 |